GFSSE_500_rhum_000.txt.gz
RH
85 80 83 81 85 83 79 82 72 53 60 80 84 77 78 79 83 78 68 73 64 54 51 51 48 38 36 35 36 34 37 44 42 26 19 18 18 19 19 20 19 18 19
80 88 94 87 94 84 80 88 82 84 72 65 75 82 76 74 98 97 87 66 68 58 66 63 62 51 44 40 36 30 30 35 39 31 22 21 23 26 27 29 28 28 28
78 75 83 74 88 75 81 80 80 83 81 91 95 95 68 96 86 95 96 95 89 83 78 52 48 53 70 64 59 46 37 34 32 28 26 25 26 28 29 32 33 34 33
89 87 86 83 80 84 81 84 89 85 86 97 87 96 98 98 95 97 96 97 96 91 83 68 60 71 78 72 61 64 60 47 42 35 31 29 29 28 29 31 34 38 40
70 74 73 78 84 86 85 76 71 58 70 84 56 67 74 84 86 87 95 94 97 96 97 95 92 72 73 73 76 68 79 78 54 49 45 42 39 39 36 37 39 38 41
79 71 70 86 86 90 84 81 80 80 68 64 57 71 65 89 95 80 98 81 94 76 81 87 95 94 77 89 85 79 90 63 75 53 49 46 46 48 46 47 49 52 56
80 80 86 74 70 66 60 61 74 74 72 66 58 61 60 68 84 95 96 97 83 77 81 100 85 79 72 92 90 80 82 80 72 74 71 53 45 45 42 43 43 43 45
78 77 71 64 68 67 61 53 46 50 55 52 57 53 54 60 64 80 98 99 100 86 80 88 94 76 69 70 96 97 90 71 72 72 59 61 50 52 47 42 39 37 37
34 36 52 60 50 46 47 49 42 48 58 53 54 42 42 43 53 64 70 89 82 82 86 80 73 78 75 77 77 86 94 78 67 70 65 48 43 40 39 35 38 39 41
21 18 18 21 26 28 26 29 33 32 40 36 16 12 10 32 63 52 71 75 83 88 84 84 78 74 77 74 73 86 95 94 86 70 70 62 52 43 43 37 33 34 39
10 8 11 15 19 25 24 20 13 8 5 11 9 1 4 5 26 78 68 86 88 77 78 84 74 80 86 74 67 65 72 72 91 89 82 75 71 73 54 44 35 29 31
3 4 9 15 15 10 7 7 7 5 8 11 13 12 8 11 25 47 88 97 100 99 90 88 84 86 91 85 73 60 60 60 90 96 86 78 79 81 72 52 34 24 26
34 21 10 12 12 11 11 12 13 13 14 16 16 17 21 18 19 33 69 97 97 97 92 91 98 99 97 78 74 57 54 58 64 94 97 94 80 85 85 64 39 23 27
33 39 37 27 27 29 36 43 43 40 35 32 33 35 43 49 58 64 73 89 95 98 96 97 96 95 97 94 80 72 67 78 86 94 96 100 88 80 76 66 44 25 24
26 27 28 22 16 11 6 2 1 1 1 1 2 3 2 6 14 26 41 61 92 97 97 98 98 99 94 98 97 82 65 71 95 89 91 97 100 96 84 71 55 26 22
6 6 6 5 6 6 7 7 7 8 8 8 8 9 8 8 8 7 5 7 20 74 96 96 97 98 98 99 94 95 84 70 75 78 77 97 96 98 98 81 73 32 33
7 7 8 8 8 9 10 11 12 11 11 11 10 10 12 13 13 13 12 11 10 12 30 22 74 97 98 98 98 98 97 94 80 61 72 75 82 96 97 96 86 44 48
9 9 10 11 12 12 13 14 17 17 17 16 14 14 12 13 14 13 14 16 16 14 16 15 15 22 39 53 96 98 100 99 98 96 94 89 95 97 97 99 91 48 48
20 19 18 17 17 16 18 20 20 21 22 23 21 19 20 18 16 17 16 15 17 19 20 20 18 20 18 20 21 68 72 65 83 87 98 92 77 89 96 98 91 64 78
30 28 27 27 26 28 29 30 29 27 25 22 20 19 20 20 20 22 24 23 19 18 20 22 21 18 19 19 23 22 32 33 27 29 75 92 96 90 94 98 98 87 94
35 36 38 38 39 41 42 41 38 34 31 29 23 21 19 17 18 23 24 25 24 20 22 23 22 20 19 19 20 17 18 16 16 19 20 34 75 84 92 97 97 98 98
41 37 33 33 33 34 36 39 38 37 36 31 32 34 36 38 40 37 36 33 29 26 21 22 20 23 24 21 20 14 15 16 16 17 18 15 18 44 93 93 98 98 96
36 33 34 35 39 44 46 48 49 48 50 49 53 56 52 58 56 58 54 47 42 40 35 28 19 21 22 23 26 25 21 18 19 18 16 19 15 17 45 79 98 99 96
32 34 39 44 46 52 62 66 69 67 72 76 78 72 74 73 67 63 68 67 55 49 48 49 48 35 26 26 26 24 28 26 22 21 24 25 16 12 18 69 85 99 98
32 33 34 35 39 41 48 57 64 73 79 80 86 88 88 91 83 80 78 89 80 72 70 72 74 67 58 50 47 45 40 37 32 26 27 26 20 13 12 19 73 84 98
33 34 36 39 40 44 50 58 72 81 86 97 100 99 98 96 86 84 88 89 94 93 87 80 73 68 68 66 61 56 50 43 39 35 27 24 22 16 10 12 42 75 98

GFSSE_500_rhum_003.txt.gz
RH
85 91 57 48 53 70 72 76 71 64 61 66 76 86 90 81 93 97 79 73 70 71 79 62 51 49 39 35 38 39 40 40 38 33 31 19 15 13 13 12 10 10 9
80 85 83 76 78 81 86 81 68 74 64 56 66 80 73 97 92 94 90 98 92 92 90 81 87 75 32 34 45 42 43 42 34 36 33 20 18 17 17 18 18 18 19
76 78 77 80 76 74 92 67 88 89 83 79 78 67 76 80 98 96 96 90 80 97 94 88 95 96 86 60 56 52 52 31 28 27 25 23 23 20 22 24 28 28 29
73 75 78 73 66 50 71 73 80 65 75 76 86 76 75 81 94 96 96 96 88 97 92 96 93 94 96 97 95 83 58 50 42 28 26 26 25 25 26 29 32 37 36
62 64 69 74 64 68 67 63 63 72 70 82 78 89 84 81 87 78 88 94 96 94 99 97 95 94 84 84 95 94 71 57 52 40 34 30 30 30 29 31 32 38 52
65 65 53 51 52 56 61 61 56 68 60 61 63 74 66 64 68 75 75 66 53 89 96 96 96 96 97 94 87 88 80 69 61 59 54 39 39 43 36 33 37 38 40
49 48 50 52 53 64 63 63 68 72 62 60 66 60 57 49 50 53 48 43 61 95 98 96 89 95 96 75 88 93 92 90 72 63 60 60 40 45 44 44 43 45 44
50 47 50 41 40 44 52 66 62 57 49 42 43 48 43 48 46 39 39 43 42 53 92 80 77 63 76 80 84 95 89 97 82 69 62 59 56 47 42 42 43 43 43
54 50 51 27 16 20 39 41 42 42 40 33 30 38 60 53 44 31 26 36 62 64 71 89 71 65 70 78 70 77 90 99 99 88 75 69 68 63 61 50 40 38 39
49 28 14 13 14 14 18 19 21 25 34 45 35 21 24 27 21 5 0 0 8 64 64 72 100 88 70 75 75 77 64 80 89 97 85 74 72 66 62 60 47 54 36
8 7 3 1 2 8 14 18 16 10 8 10 10 6 4 4 3 1 0 0 11 30 69 73 94 98 88 79 75 86 80 74 77 81 98 76 75 72 60 54 48 48 40
19 7 6 7 6 6 7 6 8 11 13 15 13 14 14 14 14 14 13 14 13 15 30 52 94 90 96 99 95 96 97 76 76 76 91 95 91 82 75 60 53 62 52
31 12 24 40 42 24 15 19 22 28 31 34 34 34 32 32 35 39 41 50 51 44 50 57 88 94 94 93 99 96 89 90 82 74 73 73 67 93 89 76 67 65 73
40 34 30 26 19 22 28 21 7 4 3 3 1 2 4 4 5 4 3 14 28 46 43 57 89 98 90 96 94 98 100 100 93 75 65 69 71 82 86 89 78 78 76
8 8 8 6 5 5 5 5 6 6 6 6 5 4 4 4 4 4 4 4 5 6 10 14 82 98 99 98 94 98 96 98 97 88 68 71 83 91 96 93 82 82 79
7 7 7 7 7 7 7 8 8 8 8 8 7 6 6 5 5 5 5 5 6 7 9 13 27 84 95 97 99 98 98 97 99 97 84 87 94 97 97 98 98 92 85
11 10 9 10 10 11 12 12 12 14 14 14 12 10 8 8 9 10 9 8 7 8 9 10 12 18 37 83 87 95 96 97 98 98 96 95 86 88 89 96 96 98 91
25 27 27 26 24 24 23 22 22 21 21 22 23 23 23 19 18 18 20 18 18 17 17 17 19 16 17 19 37 61 85 89 97 97 100 94 97 94 83 76 83 91 97
28 27 27 29 30 30 29 28 31 30 28 29 28 26 24 23 23 23 27 29 34 34 29 29 27 24 20 18 20 22 29 39 78 56 58 91 90 95 93 91 74 82 85
32 30 28 29 29 30 34 36 35 33 36 36 32 30 30 29 30 31 32 38 43 46 43 38 37 32 30 25 22 18 16 25 24 37 27 32 56 50 75 69 86 82 77
20 21 18 21 22 26 24 29 28 33 35 36 37 37 41 41 42 42 45 44 41 43 46 54 51 45 41 35 34 29 25 26 22 18 20 15 24 32 32 36 40 70 74
19 19 20 22 18 20 20 22 24 24 27 31 32 30 40 41 53 63 57 52 48 48 50 48 47 53 53 47 43 40 39 37 35 19 19 17 22 25 22 19 25 30 54
21 21 23 22 25 26 30 31 33 35 38 38 39 40 40 49 61 68 81 87 77 67 66 61 60 56 51 52 49 47 40 35 32 28 23 20 20 18 23 20 14 18 22
27 27 28 29 30 32 38 47 49 58 74 82 75 68 70 70 62 63 62 66 72 84 83 67 60 65 66 64 57 54 48 43 38 25 33 29 24 22 22 20 20 14 15
29 31 35 37 39 42 46 58 66 75 96 96 97 94 96 96 94 90 92 90 84 87 85 87 78 79 96 83 72 66 63 60 56 51 38 41 36 35 32 29 27 24 20
47 46 47 46 50 50 61 71 78 82 94 100 98 98 100 100 100 100 100 100 100 98 100 100 99 100 100 100 100 94 82 74 68 62 55 50 44 42 34 33 31 28 27

GFSSE_500_rhum_006.txt.gz
RH
96 88 71 67 73 89 54 68 68 71 65 66 65 64 64 75 88 90 99 95 93 77 79 64 56 71 45 40 38 41 40 39 40 40 27 17 15 13 10 11 11 10 8
81 71 61 45 56 69 70 76 78 78 79 70 65 63 58 60 64 89 96 84 95 88 95 88 86 72 64 44 38 37 38 37 38 38 28 20 16 15 13 13 12 11 11
75 78 80 85 80 77 87 82 74 82 63 67 92 64 58 60 64 81 86 98 97 95 88 94 98 97 84 56 42 39 43 44 44 38 27 23 18 17 16 16 16 16 16
71 74 76 71 69 62 63 59 48 56 64 74 77 67 74 71 67 72 93 91 93 96 97 94 96 98 97 94 80 53 54 51 45 31 28 23 21 21 24 22 22 22 25
63 62 67 67 67 64 57 57 54 46 48 60 75 84 89 70 80 91 81 73 63 69 90 96 98 96 97 97 96 88 82 77 65 47 46 28 25 26 26 28 29 30 30
48 52 53 49 45 43 43 48 55 58 63 56 66 76 56 66 75 78 64 58 43 33 33 79 94 96 95 96 97 98 98 94 86 67 56 52 28 28 28 29 31 33 32
45 46 48 42 51 50 48 42 52 68 74 74 70 61 51 41 52 49 49 49 42 36 33 37 60 73 96 96 96 95 97 83 86 81 72 70 53 35 29 29 32 32 36
64 65 68 71 58 39 31 20 29 43 41 40 39 37 38 33 23 48 47 43 32 27 23 21 30 39 57 75 78 79 89 98 78 88 86 81 69 64 45 32 33 34 33
59 66 51 30 30 27 13 14 11 12 16 21 24 27 33 28 19 20 23 30 26 15 4 1 2 29 65 94 72 76 62 61 74 72 95 87 76 70 66 54 39 37 40
7 7 6 5 6 3 2 3 5 8 12 14 10 7 8 10 8 6 4 5 6 3 1 2 4 12 41 66 96 91 84 67 61 72 73 81 91 75 67 68 56 45 40
7 8 7 5 4 4 13 6 5 7 6 8 11 13 16 17 13 11 9 8 9 8 7 8 12 13 15 35 67 91 99 84 71 66 72 73 95 93 88 83 75 68 61
17 24 28 21 28 36 36 38 19 15 21 27 30 27 28 30 32 30 26 23 19 22 22 23 28 35 35 42 39 38 98 95 80 74 64 69 82 88 91 92 84 76 70
23 28 36 37 33 22 16 23 30 18 10 9 8 8 9 10 10 9 11 8 5 10 10 10 20 30 36 36 44 58 72 93 88 96 89 62 80 81 90 94 90 88 80
7 11 12 9 6 5 5 5 6 8 7 7 7 6 5 4 4 5 5 4 4 5 5 5 7 8 9 14 60 86 94 88 88 96 94 91 68 89 86 90 97 92 90
6 7 7 7 7 7 7 7 8 10 10 10 10 9 9 8 7 8 7 7 7 7 7 8 10 11 11 13 24 97 99 98 95 92 97 98 93 87 93 88 85 74 73
15 16 15 14 13 13 12 13 14 14 13 13 14 15 15 16 13 10 8 8 9 8 8 10 14 17 16 13 13 23 93 97 97 98 96 99 96 99 97 88 86 78 76
21 21 21 21 23 24 25 24 22 23 21 22 23 24 22 22 21 20 19 16 16 18 18 20 18 20 18 18 16 15 17 36 91 95 97 95 98 98 96 92 88 82 80
23 23 23 24 25 28 26 28 26 26 26 24 29 33 34 34 35 35 34 33 31 31 34 38 34 29 28 22 23 27 24 23 26 73 94 98 100 100 98 98 90 90 80
29 25 24 24 22 26 24 24 23 22 23 25 30 30 33 36 39 41 40 41 43 43 43 48 49 50 52 48 37 33 29 25 24 29 41 85 93 97 86 100 97 97 86
14 15 14 15 16 18 18 20 20 22 24 26 27 26 33 36 38 40 44 50 51 48 45 45 50 52 55 55 54 47 37 31 32 31 28 39 64 83 83 70 82 93 100
13 14 15 15 15 16 18 20 22 25 27 29 32 29 33 33 36 41 50 49 55 62 66 61 57 57 58 58 56 58 54 45 40 37 28 24 28 35 58 62 32 37 62
18 20 21 23 23 23 25 23 26 28 30 32 38 43 44 53 59 70 75 67 67 71 77 78 74 68 69 70 66 65 61 62 56 43 36 38 32 21 32 40 32 35 26
38 41 44 44 43 41 40 42 39 40 47 48 51 56 54 56 64 83 84 84 80 79 83 87 84 76 70 79 81 65 56 56 65 56 50 46 37 35 26 19 28 40 36
42 46 52 56 53 50 48 52 64 58 55 63 73 75 77 70 74 73 74 71 64 69 80 87 88 84 75 75 82 91 71 59 62 65 61 58 55 48 37 24 20 16 17
52 54 58 60 60 60 60 57 58 77 73 84 94 93 92 93 90 87 82 79 87 91 90 95 100 100 95 80 83 87 89 81 75 66 67 73 60 55 49 41 31 19 18
54 54 61 65 66 67 68 69 68 68 83 88 92 94 94 92 98 100 98 100 100 100 100 98 98 98 100 100 98 99 91 87 93 96 70 73 81 74 59 56 49 42 36

GFSSE_500_rhum_009.txt.gz
RH
89 96 74 78 79 79 99 98 92 80 77 76 71 69 67 65 63 73 65 82 96 94 93 75 75 86 64 46 42 42 40 38 51 55 38 39 29 13 8 8 7 6 8
97 90 100 100 98 97 96 82 83 82 82 83 79 84 74 68 70 61 57 67 100 96 91 95 90 76 80 85 71 41 40 33 37 40 38 28 24 20 13 11 11 11 10
93 82 91 96 100 96 94 91 88 85 85 63 85 57 52 74 77 65 71 76 86 92 97 91 94 97 95 94 95 54 36 33 33 32 34 34 26 20 15 13 12 12 13
93 82 83 89 87 77 74 63 60 67 52 48 44 48 56 78 78 84 92 79 97 86 80 78 91 91 98 97 97 85 66 40 39 36 33 29 28 30 26 19 14 14 14
71 84 74 69 74 82 75 70 55 52 46 43 43 51 64 67 87 100 74 72 83 77 61 44 44 74 86 96 96 97 93 74 51 43 37 29 25 23 23 20 19 18 18
37 45 56 70 71 66 54 48 43 34 36 38 49 57 58 69 82 66 54 42 44 46 41 36 34 38 53 93 94 96 96 95 64 52 54 46 30 25 26 23 22 23 24
34 40 47 52 52 53 47 58 34 22 24 36 43 56 65 59 49 43 37 33 25 35 39 37 30 22 12 20 38 82 95 96 93 88 80 70 58 47 29 28 26 25 28
49 51 57 52 60 61 49 27 19 25 14 15 21 28 33 32 29 26 30 24 13 15 18 24 22 11 3 1 8 32 34 59 89 96 91 82 77 68 57 29 29 29 29
9 13 12 12 19 17 9 9 8 9 6 6 9 10 12 11 10 10 10 7 5 4 6 6 8 3 1 0 2 13 78 66 59 54 69 77 88 82 73 58 48 36 31
6 5 5 5 5 7 5 4 6 7 4 6 7 6 7 7 11 14 11 9 9 7 9 10 10 11 7 8 11 10 30 80 80 54 41 60 77 79 86 75 74 60 45
12 15 14 19 16 11 16 27 30 35 22 7 11 20 24 25 28 29 26 23 22 22 20 20 20 21 25 27 28 22 17 38 60 94 65 50 68 84 83 80 80 69 64
34 30 27 28 26 20 12 13 24 32 39 20 12 4 4 4 5 6 7 6 5 5 4 5 5 6 6 10 15 33 28 38 31 51 76 90 63 73 76 79 82 75 68
4 4 4 5 4 4 4 4 4 4 5 6 6 6 6 5 5 5 5 6 5 5 5 5 6 8 8 6 7 8 8 17 28 40 44 85 84 85 85 82 90 95 88
6 7 7 6 6 6 6 6 6 6 7 8 8 7 8 7 7 7 6 7 10 10 9 7 8 7 9 8 6 6 6 7 64 79 53 69 88 91 93 85 95 96 87
15 16 16 16 16 15 14 13 13 14 14 14 14 14 14 15 14 14 14 14 13 13 14 15 20 22 20 22 19 12 8 6 32 96 97 90 90 99 98 95 99 97 86
23 24 25 25 26 26 28 27 27 28 28 29 29 28 29 28 29 32 32 34 35 31 32 32 34 33 31 28 26 22 18 18 13 13 70 97 97 97 96 98 93 89 86
25 25 26 26 29 25 27 27 23 29 27 26 29 30 26 28 28 30 30 31 31 33 32 33 36 39 41 42 41 33 27 22 20 19 13 25 94 98 96 93 98 94 84
15 17 17 14 14 14 15 16 16 18 18 19 22 25 25 27 30 30 31 32 31 35 43 51 50 40 38 43 44 46 46 41 31 21 23 16 13 70 99 98 97 100 98
12 13 14 15 16 17 18 18 18 18 20 20 23 27 28 29 30 30 33 36 37 38 42 56 62 69 66 49 43 47 52 53 52 41 28 29 22 12 48 98 99 98 96
13 16 19 22 28 34 38 39 34 31 28 27 27 27 35 38 39 38 42 52 55 53 53 63 68 69 70 75 69 53 53 62 58 58 45 29 22 27 25 28 97 95 100
30 33 34 35 37 41 45 49 48 41 40 40 42 37 34 42 51 53 52 54 58 64 70 81 77 70 70 74 72 74 68 67 68 63 60 48 32 32 36 34 27 80 99
38 40 46 47 53 60 61 57 56 53 51 50 50 52 52 52 49 48 64 64 66 69 76 79 76 74 68 65 71 70 72 79 75 76 63 61 54 40 37 38 40 58 58
47 57 58 57 58 59 59 62 62 59 58 61 59 61 62 57 57 56 58 64 71 74 77 77 79 77 74 76 76 80 81 79 88 98 84 68 69 57 44 43 39 40 64
49 56 67 69 67 64 58 54 59 74 74 72 81 91 81 76 80 81 75 68 70 71 67 68 70 80 82 85 91 99 92 84 84 92 100 90 75 73 61 49 42 41 45
61 75 73 70 78 73 73 73 72 74 80 86 96 97 97 89 83 75 72 68 64 59 59 64 72 87 100 100 90 90 95 91 90 87 87 100 93 82 78 67 53 46 43
42 47 59 60 63 68 75 77 77 74 78 85 97 96 96 90 88 81 70 60 61 70 91 98 99 98 100 95 94 86 88 94 90 94 87 90 100 100 93 85 73 63 50

GFSSE_500_rhum_015.txt.gz
RH
53 55 70 78 94 91 83 94 95 95 96 95 88 93 96 74 84 83 94 86 83 83 88 81 77 75 73 95 92 89 93 74 67 86 75 64 33 28 22 71 65 71 74
51 55 81 90 88 75 90 100 97 99 95 98 80 83 72 72 69 64 57 53 56 65 94 81 77 68 66 87 82 88 98 93 71 73 91 84 58 31 23 37 60 73 80
49 51 88 88 98 99 93 97 98 98 89 76 61 51 50 47 46 41 39 39 51 60 82 75 70 45 59 75 54 47 83 94 94 72 70 96 89 66 41 52 36 62 68
38 32 73 69 88 94 83 86 84 78 83 79 69 76 67 54 32 23 30 36 70 74 68 75 55 40 38 44 46 40 36 45 50 86 83 93 94 83 57 39 20 10 10
58 77 75 78 92 94 86 82 78 69 68 71 69 65 50 25 26 34 45 59 73 71 73 64 50 39 32 31 34 35 27 19 20 52 79 84 93 88 48 34 16 13 15
56 78 57 62 60 48 58 52 50 45 47 53 44 34 21 23 16 35 53 71 75 71 67 58 53 38 25 24 35 33 21 5 13 34 76 83 98 92 43 50 20 38 25
67 54 45 36 29 19 20 19 24 23 26 21 12 8 16 22 13 17 41 46 48 52 52 46 36 24 14 15 14 26 18 5 3 37 48 94 96 60 38 62 32 45 26
46 34 23 12 7 8 7 6 5 5 5 5 5 5 5 5 6 9 14 19 22 19 18 19 13 7 4 4 5 6 7 1 1 46 72 99 60 41 24 63 63 42 24
14 12 8 7 6 7 8 9 7 7 6 6 5 13 13 6 8 7 8 10 12 17 20 21 19 19 18 17 18 15 9 6 3 33 60 94 70 78 76 68 96 46 33
20 21 15 14 21 25 28 28 22 22 25 28 27 34 35 20 18 21 24 28 29 22 9 6 5 4 5 4 9 9 22 22 14 12 35 57 94 91 83 84 94 82 43
22 11 11 12 16 18 7 5 5 6 6 8 11 14 10 4 5 5 5 5 5 5 5 5 5 5 5 5 4 5 6 12 32 31 63 74 98 96 79 84 82 85 59
7 7 7 6 5 5 6 7 8 7 7 7 7 6 6 6 6 7 8 8 8 8 9 10 10 11 10 10 8 6 5 5 6 16 38 64 96 95 90 97 89 95 91
15 14 12 12 12 12 14 15 16 16 15 15 15 16 16 17 18 18 18 19 20 22 23 23 24 24 24 24 24 18 10 7 6 7 12 18 19 52 96 74 92 97 90
21 17 12 16 20 20 22 24 26 27 26 26 25 23 23 23 21 20 22 26 27 28 27 28 31 31 33 36 38 39 32 23 14 8 6 6 6 6 7 23 40 92 92
14 10 10 12 14 15 16 17 18 19 20 20 20 20 21 21 21 22 23 24 25 25 26 27 29 30 30 28 26 26 31 34 29 23 18 11 6 6 4 18 33 72 89
16 19 19 17 16 17 17 18 21 24 30 37 42 45 47 48 45 39 31 27 27 27 28 29 31 32 33 34 36 36 37 40 40 39 43 38 22 13 9 5 11 49 86
16 18 20 19 19 24 31 35 38 36 36 37 39 43 48 49 47 48 48 46 43 42 43 44 41 38 38 37 37 41 46 46 42 47 53 49 50 46 18 17 8 12 50
27 29 36 44 49 50 47 45 42 41 46 51 54 54 51 48 48 49 50 50 50 50 50 49 50 54 52 50 50 48 49 52 50 51 48 52 56 58 54 24 21 17 10
31 34 40 46 49 46 46 49 53 55 53 52 52 54 54 52 50 48 48 48 49 55 59 60 61 61 64 64 62 60 61 65 64 61 57 56 54 52 55 59 33 24 24
33 43 48 58 60 58 58 59 60 57 58 60 59 55 51 51 52 54 54 52 51 50 55 60 65 69 76 79 77 75 72 71 71 69 65 62 59 54 51 56 61 40 28
53 62 64 62 60 64 68 70 66 60 58 60 57 53 57 62 63 59 57 55 54 56 60 66 69 72 76 79 79 78 78 74 70 62 60 63 64 60 54 51 58 62 46
60 59 58 59 66 68 65 61 62 62 62 58 56 51 47 46 51 60 67 70 69 68 72 77 84 87 87 86 80 76 70 68 62 58 54 53 56 57 58 55 53 63 66
67 61 60 65 67 62 56 55 57 62 61 58 58 53 50 48 52 58 65 70 71 68 65 62 60 60 66 70 69 64 57 51 48 47 44 43 44 47 50 52 58 60 69
54 59 66 75 70 67 63 58 51 56 54 50 47 50 56 60 59 58 59 61 61 59 56 54 53 51 54 62 60 54 48 42 38 35 43 50 54 60 65 62 57 64 69
58 73 84 82 72 64 66 65 66 62 60 55 57 57 54 53 53 53 58 61 60 62 61 62 62 60 60 62 60 54 45 35 32 31 25 64 97 98 100 100 90 73 76
68 67 65 67 67 71 71 71 64 62 57 53 50 48 49 51 54 57 66 76 79 83 79 72 68 65 65 63 57 49 33 30 27 36 42 44 64 88 99 96 93 93 82

GFSSE_500_rhum_021.txt.gz
RH
73 75 74 72 68 68 65 70 47 58 98 87 79 82 68 85 71 72 68 59 56 53 39 32 33 34 46 56 69 62 52 48 52 72 62 73 70 72 67 66 35 34 28
65 68 72 71 69 69 70 62 56 67 82 88 63 53 27 39 43 43 48 37 31 43 37 30 37 47 58 59 63 67 46 45 47 46 52 41 85 86 63 70 96 40 47
70 67 63 50 41 38 26 47 54 57 56 59 37 39 41 44 32 30 31 37 32 23 32 38 69 86 64 48 49 60 40 34 44 42 36 44 57 84 85 83 71 86 43
72 40 29 41 57 68 74 69 67 52 64 64 52 50 40 34 22 21 23 24 28 40 62 60 58 54 58 58 66 68 49 39 30 24 28 26 35 43 63 91 86 85 91
26 15 41 70 92 90 67 62 45 32 48 55 37 18 10 11 10 11 22 39 47 42 37 30 58 46 57 55 65 64 54 40 28 28 25 24 22 46 78 89 88 93 89
15 38 60 85 70 65 50 38 27 14 10 8 5 5 4 7 5 8 8 10 12 10 8 9 20 31 34 34 35 36 35 24 16 21 32 24 14 52 84 91 82 86 100
23 38 54 44 45 23 10 7 7 9 13 13 12 11 11 7 4 16 22 22 6 6 7 8 8 9 9 10 10 13 11 7 6 8 19 25 8 31 71 80 75 80 91
25 19 14 20 20 18 16 19 21 17 9 12 14 18 21 20 23 26 25 17 14 16 16 17 20 22 24 23 22 19 16 11 8 5 6 13 9 30 66 92 86 76 97
22 24 20 18 17 21 18 13 5 4 5 5 6 6 6 6 6 5 5 4 5 5 6 6 7 7 5 4 4 5 5 7 15 20 15 9 4 9 68 95 98 96 96
5 4 3 3 4 4 4 5 8 10 11 14 14 15 16 16 15 15 15 14 14 13 12 10 10 10 10 9 9 6 5 4 3 4 5 23 17 6 20 85 100 98 94
7 9 11 12 13 14 15 16 18 19 21 20 19 18 19 21 22 22 22 21 21 21 21 21 20 20 20 20 20 18 16 14 9 5 4 4 18 22 51 75 99 98 94
12 13 15 15 18 21 24 24 23 21 19 18 18 19 21 23 25 28 30 32 33 30 24 22 21 20 21 21 21 20 20 20 17 14 11 8 5 8 30 67 95 85 61
11 13 16 19 20 23 23 21 20 19 19 20 22 27 32 34 35 38 40 43 47 54 56 54 51 44 33 28 27 27 25 22 20 18 16 14 12 10 4 12 87 99 95
19 21 22 22 20 18 17 17 18 19 20 25 31 36 37 36 36 39 42 46 49 50 50 51 52 54 54 53 45 38 34 32 31 29 27 25 19 17 15 8 6 25 59
11 12 13 12 14 17 18 20 23 25 24 26 29 32 33 36 44 49 49 49 49 49 50 51 53 53 53 55 55 51 48 44 42 38 34 30 30 28 21 22 15 7 7
8 8 9 12 16 17 18 21 23 25 30 36 40 42 43 44 46 48 50 52 53 53 50 48 47 50 54 56 58 61 60 58 54 49 45 41 35 33 36 28 26 26 19
9 10 13 20 26 30 36 40 45 46 45 42 36 38 42 45 44 46 48 50 52 53 50 47 48 47 46 47 50 53 56 59 62 65 62 53 48 44 38 35 37 30 28
20 22 27 36 43 46 49 49 47 45 41 38 37 41 46 48 47 45 44 46 48 50 51 50 50 50 48 46 44 46 49 52 54 57 65 69 65 58 53 46 36 39 38
30 36 43 48 48 43 42 39 39 37 38 42 48 56 58 56 51 50 50 51 49 51 52 52 53 50 51 50 47 48 55 59 59 57 60 66 71 72 66 64 57 44 42
30 34 33 35 32 30 30 34 38 42 48 55 64 64 56 53 50 48 47 44 40 40 44 45 46 47 48 49 47 47 49 52 58 66 70 71 72 76 75 75 74 67 53
34 36 38 39 39 36 40 48 56 62 66 70 64 60 53 49 43 37 33 35 37 38 42 43 42 44 46 49 47 52 52 59 61 63 65 70 71 72 71 74 78 78 78
41 44 50 52 51 53 63 68 67 61 59 58 50 47 46 45 44 40 39 41 45 46 47 48 48 45 46 47 45 45 45 52 62 70 65 62 61 62 62 62 61 62 68
51 60 66 71 78 77 68 58 55 50 42 38 43 48 48 49 54 54 54 52 51 51 50 52 54 55 51 49 45 42 39 36 46 56 66 64 63 60 60 60 62 64 59
58 61 57 54 55 58 55 51 50 46 46 55 53 43 42 56 57 61 65 66 62 54 44 51 53 50 44 37 30 30 31 38 38 43 58 74 71 67 65 69 66 65 63
47 48 51 56 55 48 46 44 41 41 48 52 55 52 48 52 58 58 54 50 47 44 41 43 44 40 26 10 6 8 11 22 36 53 60 67 65 70 70 70 68 68 74
48 48 50 46 45 42 35 34 34 31 33 41 52 61 67 77 71 74 70 59 66 80 59 52 57 42 27 38 18 10 17 22 30 46 61 70 69 75 77 84 77 71 74

GFSSE_500_rhum_024.txt.gz
RH
66 68 68 68 66 65 62 60 53 40 42 43 77 73 51 30 26 33 58 52 53 46 42 44 37 25 30 28 38 46 54 57 54 46 46 48 64 62 80 73 70 77 63
56 59 59 62 61 52 40 26 33 32 44 52 54 64 34 26 34 38 36 42 44 36 26 18 19 34 30 40 46 56 58 60 53 56 56 54 60 57 64 72 75 79 73
56 59 61 49 27 15 25 40 41 48 32 28 32 31 29 33 36 34 23 22 24 18 22 38 57 60 62 75 66 51 49 69 50 40 51 48 44 44 52 70 80 80 90
58 49 26 15 15 20 35 48 30 18 11 11 18 22 21 18 17 15 11 16 26 36 40 51 36 35 59 50 53 58 77 76 74 57 41 36 35 35 42 51 73 85 78
39 13 12 36 47 56 53 29 16 9 7 6 8 8 6 5 8 12 10 23 14 8 12 18 17 11 40 51 54 58 52 60 55 43 34 29 31 27 26 44 64 83 98
7 18 18 17 24 29 32 13 8 10 13 16 14 14 12 10 8 5 15 27 26 14 5 6 26 8 8 12 12 14 21 27 29 25 20 15 26 34 14 28 73 88 94
22 23 16 14 18 19 20 19 20 18 11 8 10 15 21 23 19 23 27 25 15 14 14 14 14 14 14 15 16 15 15 13 8 7 6 6 13 32 30 26 54 90 96
19 23 23 22 19 17 18 15 8 4 5 5 6 8 8 7 6 5 5 5 5 5 6 6 6 7 8 7 7 9 12 15 15 16 16 11 11 6 20 15 20 63 84
16 13 6 4 3 4 4 5 7 9 11 12 11 11 11 11 11 12 12 12 12 12 12 12 12 12 11 10 8 7 6 4 4 3 4 7 17 14 15 26 22 50 82
4 5 5 6 7 9 9 11 13 11 11 13 13 14 14 15 15 16 16 16 15 15 15 14 15 15 16 16 16 15 15 14 10 7 4 3 3 7 19 17 42 39 48
6 7 8 9 10 10 11 13 13 14 15 16 17 18 20 23 27 30 33 35 38 40 43 38 29 22 18 17 18 18 17 16 16 13 11 9 5 4 5 23 18 15 66
10 10 12 12 12 12 13 14 15 16 17 18 20 22 28 34 37 39 41 43 46 48 52 54 57 57 52 41 30 26 24 22 20 19 17 14 13 10 8 5 11 68 42
10 9 10 12 12 12 14 15 16 16 18 21 24 25 29 33 35 36 40 44 46 49 51 52 56 56 55 54 55 56 49 33 28 26 24 21 20 18 14 11 9 6 26
8 9 10 11 11 15 16 18 20 24 26 28 29 31 34 40 43 43 43 44 47 48 50 51 51 51 50 49 50 49 49 52 51 44 38 32 27 26 24 19 18 15 9
8 9 9 11 16 20 22 24 25 28 32 37 40 42 42 41 41 46 49 50 48 48 50 51 51 50 49 46 44 44 45 47 49 49 48 49 44 38 33 29 25 21 20
11 13 15 19 23 28 31 32 32 35 42 44 44 42 42 43 45 46 49 51 51 50 50 50 52 53 52 48 45 44 44 44 45 47 49 52 53 50 45 40 35 31 25
20 23 26 27 29 32 37 42 48 50 53 53 47 42 40 42 47 52 53 52 50 50 52 50 50 50 50 50 50 51 50 49 46 45 46 44 50 56 54 48 46 41 36
31 35 41 43 43 45 48 55 59 56 48 41 35 35 39 45 51 56 56 53 50 48 46 44 42 42 43 43 43 43 44 44 45 45 46 47 47 50 57 60 54 48 48
40 41 35 31 32 30 34 40 41 40 38 44 49 50 53 54 51 51 47 43 35 34 34 33 33 33 34 39 38 38 40 41 40 43 44 47 48 50 53 62 61 62 54
37 33 29 30 34 39 46 50 48 49 52 54 55 57 56 50 44 36 30 28 25 26 29 27 28 31 40 44 42 41 44 40 39 41 44 44 43 46 49 48 62 65 67
38 38 37 42 47 54 55 52 50 54 60 56 57 54 46 39 37 31 28 26 26 23 29 37 38 34 38 46 41 46 41 38 44 43 44 41 42 44 43 47 55 62 68
42 44 46 50 52 57 59 58 62 66 63 62 50 41 34 32 32 34 34 33 33 32 38 55 60 52 46 53 40 44 32 35 34 44 40 39 39 38 37 40 45 54 62
46 48 50 57 59 65 67 60 55 52 47 33 32 33 35 32 40 46 51 58 61 57 56 56 58 59 51 46 44 44 34 23 30 23 17 26 29 28 34 34 34 38 48
50 52 60 60 59 56 53 48 42 34 30 33 35 37 41 40 45 46 47 55 61 74 82 67 50 52 62 52 54 40 27 23 12 13 6 4 6 16 27 31 35 32 30
46 50 51 50 47 39 31 31 32 37 42 38 42 44 62 63 59 62 65 58 52 51 49 50 49 51 49 35 31 20 18 6 7 6 6 25 7 4 10 32 49 44 36
50 49 46 37 29 30 33 37 37 43 49 48 46 49 54 60 62 60 58 58 56 57 58 55 43 18 10 10 9 9 8 10 7 6 5 13 44 20 5 8 40 68 68

GFSSE_500_rhum_027.txt.gz
RH
54 60 63 61 59 56 48 46 29 31 33 41 56 65 65 60 33 31 35 40 46 54 43 36 23 17 20 25 26 28 36 45 51 50 43 40 51 52 56 52 54 60 69
48 45 44 52 42 38 26 19 32 46 50 38 37 43 56 42 35 32 34 31 38 29 21 16 21 33 54 56 35 44 60 69 77 68 66 55 44 53 54 59 56 63 62
41 39 31 32 24 16 20 34 39 22 13 8 10 11 24 31 47 12 18 14 13 16 29 33 40 45 26 36 62 72 68 58 56 79 71 71 71 59 58 56 50 71 72
18 20 25 12 16 25 40 34 20 9 8 9 10 11 10 7 7 6 12 9 12 20 20 17 31 26 23 12 45 44 46 49 71 71 73 70 49 50 46 42 53 65 86
13 13 12 17 12 16 23 27 14 11 14 15 15 13 12 10 7 5 5 12 17 18 20 6 7 27 43 14 9 19 29 36 41 43 57 53 45 43 36 31 35 47 73
8 14 18 14 16 19 18 18 19 19 11 6 6 7 13 18 18 15 20 27 28 20 15 14 16 11 8 8 8 8 8 8 9 14 20 31 30 32 22 24 27 21 33
15 19 18 15 12 12 13 12 8 4 4 6 7 7 5 5 6 5 4 4 4 4 4 5 6 7 10 16 19 18 19 19 19 18 16 16 17 32 16 18 26 28 22
11 10 5 4 4 4 5 5 5 6 7 10 10 10 9 8 8 8 9 10 10 10 10 10 10 10 10 7 6 5 4 4 4 4 4 6 10 14 12 7 7 26 28
4 4 4 5 4 5 7 7 8 9 9 10 11 12 13 14 15 17 18 19 18 16 14 13 12 12 12 13 14 14 14 12 10 7 5 4 4 4 6 16 15 13 43
5 5 6 6 7 8 8 9 10 11 12 13 14 16 17 19 23 27 30 32 34 35 36 38 40 40 31 18 15 15 16 17 18 17 13 16 9 6 4 4 9 19 18
6 7 7 7 8 9 10 11 12 12 13 13 14 16 18 22 27 32 33 35 34 35 37 39 42 47 50 48 46 42 34 24 19 19 16 21 16 13 11 7 5 6 28
7 7 8 8 10 10 11 10 10 11 12 14 18 23 27 30 32 32 36 38 42 47 50 51 51 51 50 48 48 48 47 47 45 36 24 20 20 18 15 14 13 9 25
7 7 8 9 9 9 9 9 13 19 24 25 27 31 36 40 42 40 37 35 38 42 42 47 50 51 52 54 56 54 50 50 47 45 41 36 28 22 20 20 17 14 11
8 8 8 8 9 10 13 17 24 30 32 33 34 37 42 43 42 39 37 37 42 44 46 45 44 46 48 49 51 54 54 51 48 46 39 48 47 41 35 28 24 22 19
7 9 12 14 19 23 24 27 30 34 40 42 43 46 47 47 46 43 41 44 46 48 51 50 49 46 46 47 49 50 51 48 46 46 43 48 49 47 45 43 37 29 26
14 19 24 27 29 29 28 29 31 40 44 49 49 48 50 49 49 48 44 43 44 52 54 52 49 47 45 44 44 45 46 46 46 47 46 44 46 46 48 47 45 44 39
25 28 32 32 33 32 34 40 45 49 50 49 49 45 44 45 46 49 48 50 50 48 46 44 39 34 32 30 29 28 31 35 37 39 43 40 43 46 45 43 47 47 47
26 31 33 31 32 37 43 54 57 50 53 54 53 50 47 48 48 46 44 37 31 30 28 25 22 20 21 24 23 22 20 23 22 28 30 33 29 34 44 45 46 46 50
33 38 42 43 41 35 35 42 46 52 55 51 49 48 48 47 43 41 38 35 32 31 36 38 41 34 33 39 43 36 33 32 27 24 24 27 31 28 28 34 41 45 49
38 46 47 50 43 48 44 54 54 55 52 51 48 45 48 44 42 36 31 31 33 31 36 43 42 42 41 40 34 32 33 34 30 29 27 31 27 27 31 19 30 39 40
41 43 48 45 49 52 55 60 62 57 53 57 62 59 61 52 43 35 34 34 35 37 37 39 43 44 45 59 53 59 45 42 36 33 36 31 28 24 25 30 18 30 29
47 51 53 53 58 65 65 65 68 65 65 65 54 49 39 31 35 37 40 41 40 39 40 42 42 43 43 46 56 64 60 50 46 45 42 44 34 29 24 21 22 23 19
52 57 63 66 67 66 69 67 68 67 58 48 36 36 38 45 49 62 55 49 51 54 49 48 48 49 47 48 54 61 61 64 64 54 43 27 28 17 12 8 9 10 10
55 61 58 54 56 64 66 57 49 43 38 39 38 44 50 56 59 59 54 49 51 54 48 46 44 38 35 29 39 55 59 59 64 60 57 34 8 6 5 5 6 5 5
49 48 54 58 60 53 44 41 41 41 43 47 54 52 57 59 55 53 49 49 46 44 38 32 26 21 20 20 20 18 13 10 8 8 7 13 52 13 10 7 6 5 4
56 58 58 56 47 42 48 48 50 54 57 54 53 57 52 51 50 44 38 35 34 34 34 31 24 19 16 15 14 13 13 13 12 11 11 11 11 48 14 12 12 9 7

GFSSE_500_rhum_030.txt.gz
RH
31 38 44 45 40 42 42 37 28 22 37 45 43 49 50 64 58 42 49 54 57 47 39 28 18 15 17 24 33 21 24 35 43 54 55 46 51 54 43 34 46 71 63
55 38 36 38 39 34 23 19 22 33 35 15 11 16 33 50 50 44 35 13 13 18 11 16 21 35 42 44 29 44 30 30 34 45 54 58 56 55 57 55 49 56 71
28 27 27 30 24 16 22 37 36 16 9 6 7 10 11 11 9 10 9 11 12 7 14 23 23 32 38 34 15 26 52 50 60 55 52 56 58 60 52 58 49 55 61
20 18 19 14 14 13 18 21 15 11 13 14 13 12 11 10 7 4 4 6 12 14 12 10 6 10 15 22 22 18 23 30 33 33 37 42 57 76 75 66 53 55 54
7 9 8 13 14 13 14 14 13 11 6 4 4 4 6 9 11 12 15 17 21 25 26 21 11 9 9 21 17 7 8 12 14 17 18 25 45 59 55 56 49 46 39
8 10 12 14 9 6 5 6 4 4 4 6 6 6 4 5 6 7 5 4 4 4 4 5 6 7 9 11 13 13 13 13 11 8 6 7 32 24 31 51 53 37 28
10 10 7 3 2 3 3 4 4 5 6 8 9 9 8 7 6 7 8 8 8 8 8 8 8 8 8 6 5 5 5 7 9 10 13 14 14 15 14 21 28 22 21
4 3 3 4 6 6 6 6 7 7 8 10 11 12 13 14 16 17 19 20 21 21 20 18 14 11 10 10 10 10 9 8 6 6 5 4 4 4 6 10 12 10 9
4 4 5 6 6 7 7 8 9 10 10 12 13 14 16 18 20 23 26 29 31 32 32 32 33 34 32 27 18 13 13 14 14 13 11 10 8 5 4 4 4 15 22
5 5 6 6 7 8 9 10 11 12 12 12 13 14 15 18 20 24 28 32 33 33 33 37 42 43 43 44 44 43 35 26 20 17 16 16 14 11 10 8 4 4 6
6 6 7 8 9 9 10 10 10 10 10 11 12 14 17 20 26 34 37 38 41 41 40 40 41 42 46 48 48 47 48 46 45 42 37 24 19 18 15 13 12 9 5
6 7 7 7 7 8 8 8 10 10 14 18 22 26 30 32 38 36 42 40 40 36 35 43 43 44 44 44 44 46 45 45 48 46 42 43 42 29 20 20 18 16 14
6 6 7 7 7 9 12 16 19 20 23 28 33 36 38 36 38 40 41 40 39 39 37 41 45 47 45 43 44 41 45 46 44 41 36 42 49 43 41 29 22 21 21
6 6 8 11 15 20 24 24 23 26 30 35 41 46 41 41 39 37 34 30 28 28 32 33 36 41 44 45 43 42 40 40 42 44 40 41 40 39 39 44 42 33 27
9 11 15 18 24 27 27 26 29 33 39 43 42 41 44 45 46 43 42 45 46 47 47 47 44 40 39 37 39 39 38 38 39 40 36 42 45 41 38 38 41 44 45
15 15 16 23 29 30 33 36 38 46 44 49 43 43 48 54 56 52 50 50 47 45 44 40 32 27 24 26 27 26 29 30 26 29 34 28 37 42 43 44 44 41 40
16 20 25 29 31 31 34 43 45 47 48 46 44 48 52 52 49 49 48 48 45 39 32 27 25 24 24 24 24 24 23 24 26 23 22 22 21 28 30 34 38 42 43
25 28 28 24 23 34 36 42 44 38 45 47 51 50 45 50 50 50 44 39 31 24 24 25 27 27 27 26 24 24 23 24 26 26 27 26 22 20 22 24 24 27 33
29 29 30 24 24 34 45 50 51 55 57 50 47 43 44 50 46 44 32 30 26 24 26 29 30 32 32 33 33 32 30 28 27 24 22 27 33 27 20 23 22 22 22
29 31 32 39 37 60 65 53 65 59 55 50 52 49 54 50 36 30 29 27 27 27 31 36 35 34 34 35 32 29 32 30 26 24 24 27 27 30 38 21 22 25 23
27 29 48 48 64 60 59 65 60 58 51 52 56 47 46 30 33 33 32 34 35 35 39 40 38 37 37 37 30 28 25 26 28 32 31 24 25 26 30 35 29 27 28
36 44 57 65 68 71 67 64 63 58 61 63 58 38 37 38 38 38 40 40 41 42 42 41 36 30 27 29 30 30 25 23 28 28 27 29 35 38 36 32 35 39 38
51 60 66 58 63 75 62 50 58 64 58 47 46 46 44 42 41 44 44 42 36 36 37 36 34 32 31 31 36 36 32 28 28 29 30 38 66 80 80 89 55 50 50
55 56 53 49 50 56 64 64 58 49 50 52 49 45 45 51 52 47 43 42 42 45 41 40 39 40 41 38 38 37 33 29 30 30 26 22 31 42 57 77 95 68 77
49 47 50 56 56 52 56 52 51 50 48 49 50 46 43 39 39 42 48 50 50 56 65 58 50 52 64 64 56 43 37 35 30 29 32 29 22 33 37 63 72 84 83
45 53 60 59 56 51 48 49 47 46 44 42 41 40 41 45 48 51 53 52 48 50 54 68 89 79 59 50 41 29 18 12 10 24 30 21 20 21 32 50 69 98 100

GFSSE_500_rhum_036.txt.gz
RH
94 74 79 68 45 24 27 28 26 22 18 19 23 20 9 7 9 12 16 24 36 37 23 11 12 14 14 17 19 22 28 32 33 35 43 46 45 46 67 68 73 71 75
88 99 79 40 20 16 17 12 12 17 22 14 8 7 9 11 11 10 7 6 5 6 8 10 8 10 14 18 27 36 41 19 29 33 24 24 24 61 56 58 78 74 70
76 63 26 19 9 10 11 11 10 10 12 9 8 4 4 6 8 6 6 7 8 10 15 20 17 9 6 7 13 30 25 20 14 11 18 22 41 53 76 66 63 90 83
78 30 15 7 8 10 13 10 9 8 5 3 4 4 4 5 5 5 5 5 5 7 7 7 7 9 9 9 8 9 18 25 14 5 7 12 23 38 36 34 41 47 94
55 17 6 6 8 12 6 6 5 4 5 7 8 8 8 8 12 12 10 9 8 7 6 7 7 7 7 6 5 6 8 9 9 10 11 9 8 12 20 22 9 54 73
14 6 6 9 7 3 3 4 6 7 8 9 11 12 13 15 15 15 16 18 17 16 16 16 14 13 11 10 9 9 7 5 4 5 8 10 14 14 18 33 31 26 19
6 6 8 3 3 5 6 7 7 8 9 11 12 14 15 16 18 19 20 22 22 23 24 25 26 27 28 30 28 19 13 11 10 9 7 5 4 11 20 16 9 27 24
6 6 3 4 5 7 8 9 10 11 11 12 12 13 13 13 15 17 19 20 23 27 29 31 31 31 32 34 36 36 38 36 26 15 13 13 13 14 22 13 6 4 5
4 3 5 6 7 9 10 10 10 10 10 10 11 11 12 13 15 17 18 21 24 28 32 32 32 34 35 35 36 36 37 39 39 46 42 31 20 18 17 16 16 13 13
4 5 6 8 9 9 9 8 8 9 11 14 16 19 22 22 25 27 27 28 28 31 31 31 30 28 27 32 35 38 40 38 33 33 37 40 44 46 43 39 27 18 18
5 6 8 8 7 7 8 8 11 18 22 23 24 21 20 22 23 28 29 32 34 29 26 26 25 26 28 30 32 36 38 39 40 37 37 37 36 39 40 41 43 43 32
7 7 6 6 6 7 10 15 21 26 28 26 23 20 22 27 30 32 33 36 40 39 38 32 28 28 31 33 35 35 36 38 38 39 40 42 41 39 37 37 37 39 39
6 6 6 7 8 12 17 22 31 33 25 18 16 18 25 29 29 33 34 33 34 37 40 38 39 39 39 40 39 38 36 27 22 28 35 38 40 40 39 39 39 39 39
6 7 8 10 13 15 21 29 32 30 30 31 24 23 26 24 27 30 30 31 32 33 35 36 36 38 38 38 38 32 21 16 15 15 15 18 22 27 36 38 39 40 39
10 11 11 13 15 20 24 27 25 19 24 29 34 38 33 34 37 36 35 33 32 38 37 37 34 28 28 28 28 22 20 19 18 18 18 18 17 17 16 17 22 29 34
11 14 19 19 17 24 25 41 64 61 55 64 63 65 61 51 42 40 38 37 40 41 36 30 23 21 21 22 21 19 20 21 23 23 24 24 23 23 20 17 17 17 18
10 15 22 22 27 40 50 88 88 69 61 55 65 63 54 48 46 48 48 46 43 38 31 28 26 25 24 24 25 26 25 26 27 27 27 26 27 25 22 22 22 21 18
9 11 14 32 53 84 89 60 60 72 61 51 50 48 52 50 52 53 48 41 37 36 36 34 31 30 29 26 25 25 24 23 22 22 21 21 20 19 21 21 21 20 21
13 15 20 36 73 97 97 78 67 48 50 57 54 50 48 48 49 48 46 45 42 38 35 32 31 29 28 28 27 27 26 26 27 27 26 26 26 24 22 20 18 18 17
34 47 70 88 100 100 93 71 52 55 54 57 54 51 50 46 45 44 43 42 43 44 43 42 41 39 38 36 34 33 32 31 30 29 28 28 27 27 27 25 23 22 21
65 79 84 98 87 67 42 37 46 49 55 69 62 58 53 50 49 54 59 55 50 44 41 39 36 32 27 22 16 15 18 23 25 24 27 26 24 22 21 20 23 25 24
69 85 84 40 38 37 44 50 51 58 64 65 63 60 59 62 70 64 49 42 36 28 20 15 13 17 20 20 19 15 10 18 25 29 33 35 31 31 30 28 25 26 27
47 42 40 44 47 50 57 56 60 67 74 74 69 68 81 81 55 46 33 23 20 17 16 17 22 25 26 26 28 29 25 23 18 26 42 45 48 46 45 45 44 39 38
59 58 65 72 75 69 59 60 62 72 78 79 89 93 62 42 32 29 30 28 22 23 29 29 27 25 27 31 39 38 48 50 42 25 34 39 44 47 51 54 52 49 48
61 70 66 61 58 57 59 69 76 80 79 94 77 53 39 34 36 38 35 37 42 45 40 36 37 40 48 59 64 52 61 60 59 54 43 37 33 34 37 40 44 49 48
83 72 76 59 58 67 74 83 89 86 56 38 27 30 34 38 40 37 37 41 43 47 47 55 58 66 68 74 83 76 61 51 39 30 20 13 9 6 5 5 5 6 10

GFSSE_500_rhum_039.txt.gz
RH
66 90 84 82 79 33 14 14 10 13 15 18 17 9 7 8 9 8 6 6 10 6 5 7 8 9 9 11 12 16 26 28 32 43 47 40 49 51 44 43 53 69 80
78 74 79 64 41 13 9 8 11 11 12 8 7 7 6 6 7 6 6 6 6 8 12 17 20 16 10 7 8 10 16 30 36 16 37 39 40 43 59 56 45 74 69
37 49 46 56 15 6 6 11 11 8 6 5 4 4 4 5 6 6 6 7 6 8 8 7 6 6 7 7 7 7 6 8 16 22 17 17 25 29 38 43 50 38 35
33 48 46 17 6 6 11 10 7 4 4 5 7 8 8 10 10 10 10 9 8 7 7 7 8 8 8 7 7 6 5 6 7 7 7 6 5 4 13 17 19 19 35
17 24 35 6 6 8 8 5 4 4 6 8 9 9 11 12 13 14 14 15 15 14 14 13 13 12 12 11 10 10 11 9 6 6 6 8 11 10 9 10 19 24 25
13 20 6 6 8 4 3 4 6 7 9 10 11 13 14 15 16 17 17 18 18 19 20 22 23 25 26 27 28 28 25 16 12 11 10 7 5 4 8 22 30 19 19
15 9 6 5 3 5 7 8 8 8 9 10 12 13 14 14 15 16 18 20 22 24 26 26 27 28 28 27 28 29 29 30 34 29 18 14 14 15 17 20 35 15 6
6 6 4 3 6 6 7 8 9 10 11 11 11 11 11 12 12 13 15 17 20 21 23 25 27 30 31 32 33 34 34 34 34 34 38 38 30 20 17 19 17 16 16
6 4 4 5 6 8 9 10 10 10 10 10 10 13 15 18 20 23 26 28 28 28 28 28 30 30 32 30 29 31 33 33 33 36 36 37 38 41 46 35 33 29 22
4 4 6 7 8 9 9 9 9 9 10 14 18 19 20 22 22 23 23 25 26 28 30 27 26 24 25 26 27 28 30 33 36 38 40 39 34 35 39 42 44 40 39
4 5 6 8 8 8 7 7 8 10 18 23 22 17 17 18 20 24 27 31 32 35 35 34 35 35 31 27 27 28 30 30 31 33 35 37 39 37 37 34 32 34 37
6 8 8 8 7 7 7 9 13 20 22 20 19 19 20 24 25 24 27 29 35 36 34 32 31 31 32 33 32 32 33 36 36 33 28 24 33 37 36 36 34 31 29
6 6 6 6 6 7 10 14 18 17 20 22 18 18 20 21 27 31 33 34 34 34 34 31 34 37 36 37 37 38 37 34 31 27 18 16 15 20 24 29 33 33 30
6 6 6 8 10 12 17 19 18 24 26 22 34 40 53 60 59 51 44 33 32 37 36 34 39 40 39 34 29 29 30 32 27 20 20 21 22 20 17 15 14 15 24
9 9 10 12 15 18 21 24 29 33 36 86 80 66 58 51 49 38 38 38 39 41 41 40 40 36 31 27 27 26 27 28 26 24 22 22 23 24 24 23 22 20 17
14 14 17 19 21 22 28 31 37 66 76 61 60 53 41 34 31 37 45 44 42 39 38 37 35 33 31 28 29 30 32 33 32 31 30 28 26 26 24 24 24 24 23
15 16 12 13 17 25 54 86 94 69 61 62 46 47 54 53 51 51 48 45 42 39 38 37 35 33 33 32 31 30 30 29 28 27 26 24 24 24 24 23 22 22 22
14 13 12 30 37 66 84 90 97 97 81 44 48 48 49 54 55 55 52 49 47 45 44 46 46 47 45 42 42 40 39 37 36 36 35 34 32 29 28 28 28 27 26
8 12 42 72 90 95 97 98 95 60 56 48 45 51 54 51 51 54 55 54 56 63 61 54 43 29 20 16 13 11 12 12 11 10 11 12 16 19 23 26 28 28 29
11 42 67 92 98 97 97 96 78 45 46 45 50 54 48 53 58 59 60 63 57 41 29 19 14 15 14 12 11 11 12 13 12 12 12 12 14 14 13 12 14 18 21
58 78 99 99 100 89 78 61 46 46 56 60 48 49 58 64 66 66 64 38 27 21 19 17 18 18 18 16 13 12 12 12 12 13 13 12 12 13 13 13 16 16 17
98 88 70 55 47 54 64 63 59 51 46 45 49 61 71 75 76 72 46 35 26 24 20 18 16 15 14 13 13 13 12 14 18 20 20 19 17 22 20 17 17 19 21
75 66 64 50 41 43 48 54 53 52 52 56 67 75 77 74 58 44 35 29 28 25 22 21 22 22 20 21 21 21 17 15 15 17 21 24 26 36 39 27 27 32 36
94 89 75 68 64 64 63 72 67 61 65 79 91 94 88 82 72 50 38 38 39 38 33 29 27 28 29 26 25 24 22 19 16 14 14 15 22 47 55 33 33 46 54
100 92 90 90 100 100 100 95 79 77 93 100 100 93 58 39 36 36 36 36 30 25 28 32 35 33 29 26 22 18 15 14 13 12 10 11 15 24 26 27 32 34 41
78 95 95 99 100 96 84 84 93 98 97 74 55 46 41 39 33 22 19 21 26 31 33 32 28 22 16 12 10 10 12 14 16 24 35 56 78 72 73 63 26 12 16

GFSSE_500_rhum_042.txt.gz
RH
72 70 82 98 85 66 37 13 6 8 8 6 5 4 4 4 4 8 9 10 8 7 8 8 8 8 8 7 7 7 7 10 25 44 28 29 49 43 34 38 44 44 48
68 62 58 53 58 39 16 6 8 8 5 4 4 4 4 5 6 8 11 12 11 10 8 8 7 7 6 7 6 6 7 7 12 20 22 23 23 40 45 46 54 54 56
78 65 40 59 33 18 6 7 9 7 5 5 5 6 9 10 10 9 11 12 13 12 12 11 12 12 11 11 12 13 10 6 7 8 9 7 6 8 14 30 27 46 53
62 39 34 28 29 8 6 8 7 6 6 6 7 9 10 12 14 15 16 16 17 16 17 17 17 18 18 17 17 15 14 12 10 6 6 8 9 10 10 12 10 16 20
62 30 12 18 22 6 8 5 5 5 5 7 9 10 12 14 15 16 16 16 18 19 19 19 20 22 23 25 25 26 27 26 20 14 12 9 7 6 5 7 20 31 33
31 17 15 19 6 6 4 4 5 6 8 8 10 13 14 15 16 16 17 18 19 20 21 22 22 23 24 26 26 26 27 29 31 32 30 20 16 14 12 17 20 29 16
24 20 19 6 6 3 5 7 7 8 8 9 11 12 12 12 12 12 13 14 14 16 18 19 21 22 24 27 28 29 30 30 31 31 33 35 37 31 23 23 19 18 20
32 13 8 6 4 6 7 7 7 8 10 11 11 11 11 12 14 16 18 19 20 21 22 22 22 23 24 26 26 27 25 25 29 31 30 29 30 33 37 40 41 30 26
8 6 6 4 5 6 6 7 9 10 10 10 10 11 15 18 17 17 20 20 20 20 23 28 30 29 28 23 21 22 23 24 24 31 33 36 35 33 30 31 38 42 38
6 6 4 5 6 8 8 9 9 9 9 10 12 18 19 18 18 18 21 22 23 25 27 30 31 30 30 31 31 28 24 23 25 27 30 33 33 34 35 35 32 30 32
5 4 5 7 8 8 9 8 8 8 10 12 18 22 21 18 14 15 19 21 23 25 29 35 31 30 29 29 29 29 30 30 31 32 31 32 33 33 30 32 33 34 32
4 5 6 7 8 8 8 8 8 10 14 19 20 22 23 17 17 22 30 35 33 38 37 33 34 33 32 34 35 33 30 30 32 32 34 34 31 22 18 24 32 34 35
6 6 7 7 8 8 8 9 11 15 17 21 26 26 42 71 65 60 55 54 47 36 34 37 40 41 39 39 39 39 37 32 29 30 31 30 24 18 16 16 16 16 19
6 6 6 7 8 10 12 14 17 19 23 26 30 72 69 70 59 52 44 33 30 36 39 40 41 42 44 43 38 33 29 26 25 24 22 22 22 21 20 19 18 18 17
8 10 11 12 13 15 16 17 20 24 29 55 70 77 62 53 51 46 37 40 36 36 36 38 40 39 38 38 38 37 36 35 34 33 33 31 30 28 25 22 20 20 21
11 12 13 14 17 18 17 17 22 30 43 69 96 88 58 53 52 48 44 38 34 34 40 41 41 40 39 40 43 45 45 42 40 36 33 31 30 29 28 27 26 26 25
18 19 21 23 24 20 33 39 45 72 94 98 93 63 49 42 38 41 43 34 37 43 46 47 46 47 47 48 48 43 38 36 37 37 37 38 37 37 36 35 32 29 26
20 18 16 24 67 76 71 89 99 98 98 96 97 61 46 40 44 44 37 41 49 53 54 55 59 55 44 28 17 16 16 17 15 15 13 12 12 11 12 13 17 24 29
16 14 22 66 75 67 86 98 96 98 98 96 85 65 45 46 38 34 42 54 58 60 62 51 30 20 18 17 15 14 15 15 13 13 12 11 10 10 12 12 11 11 10
20 28 34 75 77 98 96 96 98 79 58 58 72 44 37 39 41 49 56 62 64 58 36 25 23 21 16 13 12 11 11 11 11 11 11 11 12 11 11 11 11 11 11
43 57 61 91 97 96 83 51 42 29 30 36 46 49 58 60 58 56 63 66 50 34 29 26 25 21 16 13 12 12 13 14 15 17 15 14 14 13 13 12 11 11 12
73 84 94 78 58 53 62 58 45 53 58 61 66 72 69 66 66 70 68 50 39 34 31 29 21 16 15 16 15 13 12 14 14 19 19 18 20 21 18 17 16 15 14
77 61 61 62 64 79 83 66 59 57 60 68 72 72 73 77 78 63 64 63 51 42 41 37 28 21 19 18 18 18 16 15 15 18 20 20 19 18 18 18 18 18 17
79 77 62 90 98 71 68 74 72 71 72 78 81 84 88 82 78 73 60 49 45 37 25 19 17 16 16 17 19 20 22 20 19 17 20 23 22 21 20 19 18 16 16
91 63 70 85 82 96 91 95 92 78 88 90 94 77 66 58 48 42 35 24 17 15 14 14 16 18 21 25 27 30 31 30 26 26 28 26 25 22 17 15 13 13 13
72 77 100 100 100 100 100 90 89 100 100 79 61 56 47 37 26 19 17 16 16 17 18 19 22 26 30 34 37 33 26 19 13 10 10 8 8 9 9 13 16 20 24

GFSSE_500_rhum_045.txt.gz
RH
77 71 51 48 47 41 33 26 9 5 6 4 3 4 7 5 5 8 13 14 14 10 10 9 8 8 8 9 9 8 7 6 6 8 15 20 19 19 29 32 42 44 36
85 64 53 43 30 19 23 14 5 7 5 4 5 6 8 9 12 13 14 14 15 15 15 16 16 16 15 15 14 15 14 12 8 6 7 10 11 7 8 17 36 53 52
88 96 74 54 24 20 24 6 8 6 5 5 6 9 13 14 14 14 14 15 15 15 16 16 16 17 19 20 21 21 19 17 15 13 8 6 7 8 9 8 10 18 39
83 83 68 28 20 34 11 8 7 6 6 7 8 11 13 13 14 15 15 15 16 16 16 15 15 17 18 20 22 24 24 25 25 24 18 13 10 6 5 6 9 17 18
79 58 33 18 29 22 7 8 6 5 6 8 10 11 12 14 15 15 16 15 14 14 14 14 14 17 18 19 20 22 23 25 26 27 28 28 22 15 13 12 13 23 22
52 31 24 30 14 7 9 5 4 6 7 8 10 11 13 13 13 12 12 12 13 13 13 14 14 14 15 18 19 21 22 23 24 27 29 28 30 32 30 23 18 23 24
27 29 27 24 8 8 5 4 6 6 8 8 9 11 11 11 11 12 14 14 14 14 14 15 15 17 17 15 15 15 16 18 21 21 23 25 26 26 31 35 36 37 24
29 40 22 12 8 5 6 6 6 6 6 9 11 10 10 11 14 16 15 14 15 15 17 18 21 22 23 22 23 22 18 15 15 18 21 27 31 30 28 26 27 31 34
21 18 10 9 6 5 5 5 6 7 9 11 10 9 11 15 19 17 15 15 15 16 19 20 24 23 23 24 24 23 22 20 18 16 19 23 26 32 34 34 34 31 27
7 8 10 6 5 5 6 7 8 10 10 9 9 10 14 19 20 19 15 16 17 20 21 20 22 22 20 20 22 23 24 24 23 20 21 22 23 26 28 30 33 34 33
8 10 6 5 6 6 6 8 9 9 9 8 10 15 20 24 22 24 45 47 51 51 43 33 34 30 27 27 26 26 24 27 28 28 27 25 25 26 29 32 30 26 33
7 5 5 6 6 7 9 9 9 8 8 10 16 19 23 25 29 56 62 61 53 52 50 36 30 36 37 36 34 34 33 33 32 32 32 32 32 31 30 27 19 15 22
5 5 6 6 7 8 8 9 8 8 11 14 17 21 27 38 58 58 52 51 49 35 34 31 30 34 38 38 37 39 40 39 34 31 27 24 26 27 28 23 16 15 15
6 7 7 7 7 7 8 10 11 13 14 16 21 29 46 61 66 61 50 44 44 38 35 32 28 31 38 42 39 39 39 38 36 33 30 26 24 25 24 22 20 18 17
7 7 9 9 10 12 14 16 18 18 18 23 28 42 65 87 80 69 50 42 38 36 40 33 27 31 40 45 44 42 43 44 41 39 39 36 33 30 29 29 28 25 23
11 11 10 10 13 16 18 18 17 19 47 40 67 78 92 95 82 61 45 58 42 40 37 36 36 43 48 49 48 50 51 51 45 38 36 37 40 42 41 38 34 30 27
13 11 11 15 23 22 18 36 48 73 71 53 92 98 97 97 97 79 38 36 36 35 38 43 49 54 55 56 54 46 29 23 20 16 15 15 15 14 13 13 16 24 33
20 21 18 36 43 49 82 84 93 99 98 99 98 95 93 84 53 42 45 46 47 47 48 52 62 66 64 47 30 24 21 19 16 15 14 14 13 12 12 12 11 10 11
18 16 16 26 56 86 98 99 98 97 94 88 80 50 45 39 48 54 52 53 56 59 63 67 67 56 35 29 27 24 20 16 14 13 13 13 13 12 12 10 9 9 9
24 31 42 46 51 76 88 97 93 57 40 48 46 63 56 54 60 62 66 69 69 68 66 57 46 37 30 24 20 17 16 15 16 15 14 13 13 13 12 13 13 12 10
36 42 41 41 93 88 94 65 42 30 38 46 56 59 66 64 72 75 74 60 46 39 32 25 23 20 18 17 16 15 14 14 13 12 11 11 11 10 10 9 9 10 10
26 74 89 79 60 42 41 37 37 67 71 67 70 75 64 57 67 62 49 42 40 37 34 34 37 36 28 19 16 15 15 15 15 16 17 16 16 16 14 13 12 11 11
33 38 45 58 68 53 37 62 80 86 88 79 74 72 69 82 81 60 56 56 55 53 47 37 25 20 18 19 20 20 19 18 18 19 20 20 20 21 21 20 17 15 14
74 65 67 79 76 57 62 75 61 90 80 80 71 66 79 71 71 61 58 49 36 25 22 22 21 21 21 20 21 23 26 26 25 21 23 25 26 27 28 29 29 29 27
37 59 74 92 82 99 99 94 86 74 93 93 88 83 83 76 59 49 34 26 28 30 27 24 24 23 22 21 23 26 30 31 31 28 26 24 21 20 19 19 20 21 22
30 36 70 99 100 96 88 68 81 88 92 87 82 70 58 50 40 28 28 32 36 35 32 32 29 26 26 29 32 35 33 28 19 13 10 9 9 9 10 10 10 10 10

GFSSE_500_rhum_048.txt.gz
RH
74 69 64 52 52 41 20 18 15 7 6 4 4 7 6 5 8 11 13 14 13 12 12 13 12 12 12 13 14 15 16 14 12 8 5 6 11 13 12 10 21 37 47
80 76 81 88 64 33 24 17 12 6 6 4 6 8 9 11 12 13 13 13 13 14 14 15 15 16 17 17 17 18 19 20 20 17 15 9 6 6 7 6 9 29 51
88 95 94 90 49 19 19 26 6 8 5 5 8 11 13 13 14 12 12 12 12 11 11 12 12 12 14 16 17 18 19 20 22 23 24 21 16 11 6 7 11 8 13
96 96 86 58 23 18 25 14 9 7 5 7 10 12 13 13 13 12 11 9 10 10 10 11 12 13 13 15 15 16 18 19 23 24 24 25 27 25 16 12 9 12 22
96 89 51 29 19 26 18 7 8 5 6 8 11 12 12 13 12 11 10 9 10 11 10 10 11 11 12 13 14 17 16 15 18 21 24 25 25 33 29 27 18 18 21
95 61 37 27 29 16 7 10 6 5 6 9 10 11 12 11 10 11 11 12 12 10 9 10 10 11 13 15 16 15 15 12 12 14 16 18 20 30 32 27 29 28 24
82 78 49 38 30 11 10 6 5 5 6 8 8 9 11 10 10 12 14 14 11 10 9 10 12 14 15 16 19 21 23 22 18 13 13 14 16 19 22 23 22 26 29
87 75 52 39 16 11 8 5 6 6 6 8 8 10 10 10 11 15 16 15 11 9 10 9 11 13 15 16 18 19 22 24 25 23 18 14 17 18 21 26 28 28 27
62 57 55 36 11 11 6 6 6 6 7 8 10 10 9 10 14 16 15 16 14 24 26 19 20 15 14 21 23 21 20 22 24 26 26 23 19 19 20 23 26 28 28
42 56 41 13 13 6 6 6 6 7 9 10 10 9 10 12 15 16 18 18 38 56 47 39 36 28 23 18 21 25 27 27 25 25 27 27 27 25 24 24 23 24 26
26 19 12 15 7 5 6 7 8 9 9 9 9 8 12 15 16 19 22 38 58 53 51 42 24 20 18 18 18 18 21 27 28 28 28 32 31 30 30 28 27 26 27
11 13 14 8 5 6 7 8 9 9 8 8 8 11 14 17 20 25 34 54 55 49 43 44 38 27 26 22 23 21 22 27 30 30 31 33 34 34 33 34 34 31 26
12 9 6 6 6 7 8 8 8 8 9 10 13 16 17 22 27 37 45 56 54 53 44 37 37 30 27 26 27 26 29 33 35 33 33 34 33 28 25 25 29 34 30
7 7 7 7 8 8 7 8 9 12 17 20 23 23 24 36 46 51 79 84 66 50 49 48 35 30 34 29 31 33 37 43 41 40 37 35 34 33 30 30 28 26 27
9 8 8 8 9 11 13 14 15 18 20 21 20 27 46 54 69 67 80 92 84 56 35 36 30 30 30 33 35 38 43 46 47 48 50 49 46 43 41 36 30 30 31
10 11 13 13 13 13 16 16 16 19 23 30 37 46 55 75 98 99 97 98 64 48 38 38 39 42 41 45 47 50 53 54 52 52 44 36 27 23 23 25 30 37 37
11 10 10 15 29 38 40 38 34 45 62 74 77 89 95 100 97 92 84 68 68 62 61 60 63 58 59 67 68 65 64 62 50 35 25 22 18 15 14 14 14 13 14
10 10 14 45 46 68 87 79 77 98 100 98 99 99 94 98 96 71 61 54 47 43 52 58 59 61 62 66 64 62 53 41 31 26 24 21 18 16 15 14 14 13 12
18 17 19 22 33 73 83 90 98 98 96 97 90 94 85 66 70 65 69 60 58 58 64 67 65 58 52 46 42 37 31 25 20 18 19 19 19 19 20 19 18 18 17
17 16 28 36 45 63 100 84 97 98 85 49 82 90 100 93 80 71 70 67 72 68 53 39 32 27 25 23 21 19 17 16 15 15 14 14 13 12 11 11 12 13 13
25 30 25 27 49 64 89 96 82 58 60 70 89 93 89 78 78 69 57 60 60 44 37 36 36 32 30 25 23 22 21 20 19 19 18 17 14 13 11 10 10 9 8
26 25 23 24 25 32 36 43 76 72 78 98 99 86 74 77 91 94 85 82 74 66 65 64 45 32 31 35 36 33 32 32 30 24 24 22 20 19 17 15 13 12 10
50 61 72 69 62 53 49 53 71 76 73 90 91 74 70 79 78 78 76 73 64 64 59 36 31 34 41 44 41 39 36 33 29 28 24 21 20 19 19 18 17 15 14
38 30 29 28 31 31 33 39 60 59 72 72 63 59 82 87 70 67 73 70 61 47 32 32 36 43 40 38 38 38 33 31 28 25 27 26 23 21 18 16 15 13 12
20 20 21 25 26 28 34 44 41 45 49 55 62 86 82 76 77 72 66 60 49 35 32 36 41 39 38 38 39 38 36 33 30 26 23 20 16 12 8 6 5 5 5
18 18 18 18 17 18 20 23 31 38 50 59 70 74 74 67 66 66 61 49 38 40 43 41 40 43 46 43 39 35 32 28 24 19 12 6 4 4 5 6 6 6 7

GFSSE_500_rhum_051.txt.gz
RH
84 76 70 62 68 61 50 28 16 12 10 5 3 4 4 5 9 11 13 13 13 13 13 13 13 13 14 14 14 14 15 16 17 16 14 10 8 5 6 7 7 10 26
77 85 83 76 81 85 41 18 14 14 8 4 5 8 9 10 11 12 11 10 10 10 10 10 10 11 12 11 12 14 14 16 17 17 18 20 23 15 9 5 6 7 8
86 84 94 92 92 70 24 14 23 12 6 4 6 10 11 12 11 10 9 9 9 9 9 9 10 10 10 10 10 11 12 13 16 18 19 18 22 23 22 15 13 8 8
93 99 90 96 88 39 19 25 23 8 10 5 8 11 12 12 10 8 9 9 9 8 8 8 9 10 9 9 9 10 11 10 10 12 14 15 21 22 23 28 21 14 17
96 93 96 96 49 22 22 24 10 13 14 8 9 12 12 12 8 9 9 10 9 8 7 7 8 9 9 10 12 14 14 11 11 10 9 11 12 14 19 35 30 27 23
96 97 96 84 32 27 29 14 11 16 8 7 10 12 11 9 9 9 10 10 10 9 8 6 7 8 8 11 12 14 16 18 18 17 13 10 12 13 14 19 18 22 26
97 96 96 64 38 35 20 21 16 6 5 7 11 11 9 9 9 9 10 10 11 10 8 7 16 14 10 10 13 15 18 17 16 19 20 17 15 11 13 15 18 19 21
96 95 96 67 42 38 24 14 7 5 6 9 10 9 9 9 9 9 10 11 12 11 9 29 38 28 28 20 16 22 21 24 21 19 17 19 20 19 16 16 19 21 24
95 96 96 93 88 50 9 8 5 6 8 10 9 9 9 8 8 10 12 13 12 12 20 43 46 40 31 26 20 12 15 17 19 25 25 22 20 20 22 19 18 20 22
92 94 96 94 42 11 10 6 7 8 9 9 9 9 8 8 8 11 13 13 14 17 30 46 41 39 35 22 18 17 17 17 17 16 17 26 28 24 24 24 24 22 22
91 88 76 40 10 11 6 6 6 8 8 9 8 8 8 8 10 13 15 14 17 16 24 33 42 42 37 34 28 20 16 16 17 17 15 20 28 30 28 28 27 27 28
54 20 12 11 11 6 6 6 7 8 8 8 8 8 10 12 15 16 17 23 31 39 39 48 49 39 37 31 23 21 21 21 18 17 12 20 24 31 35 33 31 30 30
14 12 12 10 6 6 7 8 8 8 8 9 11 14 16 18 23 26 38 57 48 49 66 63 49 39 33 30 24 17 19 21 21 21 18 27 30 32 32 36 32 28 26
13 13 12 6 7 8 8 8 8 9 13 15 18 20 20 27 55 56 87 74 81 97 97 84 66 52 34 26 21 22 25 28 32 36 38 43 43 41 38 35 35 34 31
8 8 9 9 9 8 8 11 13 17 21 26 47 52 83 90 97 97 97 95 99 79 88 59 56 46 41 38 37 35 38 44 45 50 53 51 52 51 48 48 44 42 40
10 10 10 12 14 14 15 16 30 36 28 28 37 52 49 68 90 90 92 96 96 85 74 57 48 42 44 46 55 55 57 54 54 55 60 63 58 54 41 29 25 23 28
14 19 20 19 21 28 38 45 54 63 80 76 84 98 94 97 97 89 86 84 85 85 76 66 51 49 55 57 62 68 76 72 69 66 66 64 54 40 30 25 24 21 17
18 16 14 15 12 17 41 63 79 90 97 98 98 91 91 96 96 96 93 79 71 71 72 65 58 59 66 66 61 60 55 51 48 47 44 44 38 33 31 28 23 18 18
14 16 16 15 18 45 56 98 85 92 97 94 98 96 96 90 83 83 94 84 64 77 75 72 85 78 63 44 36 32 28 26 24 22 20 20 20 20 18 20 23 19 22
17 17 17 20 39 45 47 63 79 89 81 88 70 81 78 96 100 98 80 78 94 77 68 67 60 49 42 38 36 36 32 29 28 28 30 28 27 25 22 20 18 15 14
31 27 16 14 14 17 18 24 38 36 46 49 68 64 72 78 78 80 73 90 89 68 63 63 63 61 60 56 44 33 35 44 49 43 39 41 36 32 27 24 22 19 18
17 16 32 32 45 54 38 27 29 30 31 44 59 54 60 66 84 90 100 95 83 78 72 72 69 57 44 39 40 41 40 45 46 42 37 36 32 30 29 25 24 21 19
38 42 34 28 25 23 23 22 22 20 20 24 31 35 44 51 58 75 80 77 71 74 77 71 60 47 48 48 46 41 38 35 32 35 35 32 27 24 22 22 21 20 19
28 22 19 17 17 16 16 17 18 19 19 22 22 25 29 48 56 62 64 69 75 76 71 59 48 44 42 39 36 36 34 31 27 23 22 22 25 23 21 19 18 16 15
17 18 18 18 18 18 18 18 18 19 19 19 20 24 27 37 45 62 69 72 70 60 53 51 50 42 37 37 36 34 32 30 26 25 21 20 19 18 16 10 6 4 4
19 19 18 18 17 16 15 14 14 15 16 16 17 20 31 43 52 54 55 54 51 49 48 48 41 40 39 36 36 35 30 27 25 23 21 17 13 7 4 4 5 6 6

GFSSE_500_rhum_054.txt.gz
RH
76 92 84 87 74 71 68 60 41 23 15 13 5 3 4 5 8 9 9 9 7 6 6 6 6 6 7 7 7 8 10 13 14 14 14 16 19 20 9 6 8 5 5
82 90 93 81 83 80 79 75 47 20 16 11 4 6 6 8 9 10 7 6 6 6 6 6 6 7 7 8 8 7 8 8 8 10 13 16 18 24 16 15 14 11 7
92 95 96 91 93 90 87 74 43 18 16 7 4 9 10 10 10 7 6 6 6 6 5 5 5 7 8 8 8 8 9 9 8 6 7 9 19 19 18 16 20 22 13
96 96 96 96 98 94 95 73 24 24 17 8 5 10 10 10 9 6 7 8 8 6 5 5 5 5 6 8 10 11 12 13 11 8 8 10 8 8 10 13 17 26 24
91 97 95 94 96 96 87 44 21 22 10 12 6 10 11 11 7 7 8 8 8 8 6 5 4 6 9 7 8 10 11 13 13 11 15 12 12 9 9 10 11 25 24
98 96 96 96 96 94 75 30 26 13 14 13 8 11 11 7 7 8 8 8 8 8 6 7 6 21 25 15 13 11 12 18 18 10 12 13 14 14 13 11 12 13 16
96 95 96 97 98 95 41 31 18 15 16 8 8 11 9 7 7 7 7 7 9 8 8 8 10 36 37 29 25 17 18 17 14 5 13 16 12 14 16 16 14 15 17
97 96 96 96 96 91 55 28 23 12 6 6 8 10 8 8 8 8 7 8 9 8 8 11 15 33 38 37 29 24 19 12 13 8 9 8 13 17 14 15 19 17 17
96 96 96 97 96 91 66 56 12 5 5 6 10 9 9 8 8 8 8 8 10 9 11 12 12 22 38 40 37 31 29 21 18 14 11 11 10 11 16 20 18 20 20
96 96 95 95 95 94 85 32 22 5 7 10 9 9 8 8 8 8 8 10 12 13 17 20 24 28 24 38 44 36 30 27 23 20 16 14 12 12 12 12 20 21 22
96 96 96 96 89 76 46 20 25 22 8 8 9 9 8 8 8 10 15 17 17 22 37 39 38 42 56 44 35 33 33 27 20 16 15 20 19 16 16 16 16 20 25
95 91 44 16 15 16 17 8 6 7 8 8 8 7 9 10 13 16 15 22 28 41 72 72 82 82 68 59 56 45 37 31 25 19 14 13 18 20 20 22 24 25 25
95 44 40 11 9 6 7 6 9 10 8 8 8 11 20 16 17 45 79 97 94 91 80 83 73 65 52 55 46 43 31 28 28 26 23 24 25 22 22 25 33 33 30
27 18 16 14 16 20 19 10 8 8 8 11 27 61 53 65 71 83 99 95 98 80 69 80 76 76 58 46 40 38 34 31 30 34 31 34 41 44 42 38 45 45 40
11 15 20 13 8 8 9 9 16 23 30 50 60 56 59 61 80 95 88 74 79 71 59 59 58 68 56 53 52 46 39 36 37 39 46 50 56 59 60 64 60 57 52
7 8 8 9 10 14 18 24 32 41 60 66 80 77 96 95 87 83 91 87 82 73 68 59 50 49 46 52 53 47 48 47 54 61 62 56 63 72 72 70 66 54 48
7 8 12 16 20 17 20 23 37 56 64 93 100 90 73 98 97 91 79 66 75 70 71 67 58 57 64 70 62 64 64 72 66 60 56 53 52 52 54 54 58 40 33
12 16 17 14 12 17 27 47 81 80 74 98 95 76 84 76 73 78 84 97 84 74 67 62 69 71 69 67 77 75 68 53 43 38 34 30 27 25 24 26 31 35 35
11 12 12 14 44 64 68 60 58 82 59 47 40 48 44 45 49 40 44 48 47 58 67 70 72 64 60 55 54 51 46 43 43 42 40 38 35 32 30 28 26 24 23
13 17 21 21 78 54 41 32 24 30 32 24 25 26 21 20 24 26 33 45 56 52 59 65 64 60 58 56 56 59 60 56 50 44 44 39 36 36 36 35 34 33 32
21 24 30 48 23 24 30 24 17 16 13 15 17 16 19 22 27 31 27 35 52 67 61 63 69 74 80 78 69 60 56 56 58 56 51 50 46 43 40 37 34 33 31
11 11 55 34 27 19 16 14 14 15 15 16 16 17 19 19 21 22 32 41 45 59 64 67 79 82 77 66 58 53 50 53 52 48 41 36 32 30 26 24 21 20 19
24 42 38 23 18 16 16 17 17 17 16 17 16 16 16 15 17 20 24 31 42 50 73 76 68 62 55 50 52 50 43 36 31 33 38 34 32 27 26 24 22 20 18
30 29 19 18 19 18 18 17 17 20 22 24 23 22 20 17 17 18 22 29 47 58 54 53 53 51 52 51 43 39 40 36 30 25 26 27 27 30 28 24 21 18 16
22 18 19 18 18 20 23 27 28 28 28 26 25 24 23 22 22 22 24 27 28 33 43 47 47 47 39 38 39 40 38 30 29 28 22 27 28 25 21 14 6 4 5
20 20 20 20 22 26 28 32 32 32 31 30 30 29 28 28 26 25 25 25 25 38 54 57 53 57 60 50 43 37 38 40 38 36 33 29 22 11 5 5 6 7 8

GFSSE_500_rhum_057.txt.gz
RH
87 73 73 75 75 84 84 74 74 67 53 26 18 9 4 6 7 7 7 7 4 4 4 4 4 5 5 5 5 5 4 4 4 6 8 11 14 12 21 15 10 11 10
96 95 86 77 85 83 86 81 82 80 65 29 18 6 4 5 8 8 7 4 4 4 4 3 4 4 6 6 6 6 5 5 5 6 6 6 11 36 20 16 12 11 14
95 94 93 92 92 93 88 86 92 85 70 33 13 5 5 8 9 7 4 5 4 4 4 4 4 4 5 6 6 6 7 4 8 10 9 16 9 7 8 8 10 11 13
96 96 95 96 97 96 95 97 97 88 65 24 9 6 10 10 9 5 5 6 7 6 5 5 5 4 9 13 8 7 8 5 8 11 14 30 10 9 7 7 8 8 10
97 94 96 98 94 97 97 96 96 83 39 19 9 7 11 10 8 5 6 7 7 7 7 7 6 6 24 28 18 14 11 9 5 9 18 11 10 12 12 11 10 10 10
90 91 97 95 96 96 95 95 94 48 30 11 8 7 11 10 6 7 7 8 7 6 7 8 9 12 14 30 31 25 20 18 13 10 7 6 10 12 12 13 14 14 13
90 94 97 98 98 96 97 95 84 53 15 14 9 8 11 8 7 7 7 7 8 8 9 9 9 12 18 34 36 34 28 26 23 19 16 10 8 7 9 14 15 15 17
97 97 98 97 96 97 96 95 83 47 38 14 7 8 11 8 8 8 8 8 8 8 10 11 10 15 18 25 32 37 40 37 33 31 25 20 15 12 10 10 12 20 18
86 96 97 96 96 99 97 90 82 28 9 6 11 9 10 8 9 9 7 7 7 9 12 12 12 30 35 39 42 45 43 41 35 28 26 21 17 17 18 15 10 11 18
87 94 95 96 96 97 97 94 94 69 60 16 13 27 10 14 11 8 7 8 10 16 15 12 27 52 62 70 62 47 57 38 43 38 34 31 25 16 12 13 17 13 12
96 97 96 96 97 96 95 95 67 27 41 43 19 18 10 9 8 8 11 12 18 40 64 50 55 70 63 55 56 62 59 56 48 42 32 29 25 24 19 13 16 20 19
98 96 96 96 94 93 81 60 48 42 15 8 9 9 8 14 22 25 40 59 83 88 73 80 74 65 57 53 63 65 61 41 41 36 34 30 28 30 27 25 23 19 22
97 96 89 70 47 22 13 10 7 7 8 8 8 12 35 53 48 54 58 67 91 85 67 65 52 46 56 63 53 53 49 47 44 43 39 34 32 32 34 36 35 36 37
96 91 49 8 6 6 9 12 13 10 10 19 29 44 62 52 55 72 82 84 78 75 60 48 42 48 54 51 43 43 47 53 58 56 48 44 43 41 45 43 46 45 46
61 26 22 20 16 13 11 9 11 20 26 36 52 60 78 74 63 54 85 78 70 63 56 41 48 57 57 57 51 44 43 44 56 54 58 52 48 51 50 53 54 58 61
6 7 9 8 8 8 13 15 17 25 42 51 66 62 74 84 61 71 64 56 60 63 60 53 59 57 56 46 50 44 40 44 55 64 62 56 53 52 53 52 54 57 62
9 10 12 14 15 14 13 14 32 48 63 57 67 51 65 38 43 43 42 29 28 26 34 38 39 39 37 42 46 50 50 54 59 60 55 52 48 43 38 34 31 30 33
13 13 14 13 14 18 35 44 54 53 57 59 39 34 26 22 16 17 16 16 18 20 24 29 40 41 42 46 49 51 53 54 53 52 51 49 46 43 40 36 36 34 30
9 15 13 12 15 50 58 48 29 37 50 38 18 16 15 15 16 18 18 19 19 20 21 25 35 41 44 47 52 52 52 53 53 54 47 46 44 41 40 39 37 36 36
15 16 12 17 40 50 35 27 38 29 17 15 15 15 16 17 17 17 17 19 21 22 22 21 22 28 34 39 43 47 56 61 60 58 54 54 52 50 47 43 39 36 34
20 26 19 24 62 40 29 32 16 15 15 16 16 19 20 21 22 21 19 18 20 21 24 24 21 18 23 33 40 48 54 56 55 60 58 50 44 39 37 34 31 28 25
10 14 22 60 61 36 16 15 16 17 20 21 24 25 24 23 23 24 23 23 22 23 24 26 26 24 28 42 49 52 51 58 53 51 52 44 43 35 29 26 23 19 18
23 26 33 18 20 16 16 19 21 24 26 28 26 25 24 25 26 26 27 27 27 26 25 26 26 27 38 55 57 51 44 40 36 41 40 41 37 36 36 36 33 29 26
20 17 15 16 16 18 20 24 25 28 30 31 31 31 30 30 30 31 30 30 28 28 31 31 29 30 46 55 52 50 46 39 30 24 26 29 36 40 40 35 30 24 18
16 17 18 18 20 20 22 25 26 27 24 20 18 18 18 18 19 20 25 28 33 38 38 32 25 39 59 56 50 44 45 44 42 34 26 28 33 38 31 18 8 5 5
18 20 21 22 23 26 26 27 24 20 17 16 16 17 18 20 21 21 22 24 27 32 30 26 38 60 58 60 60 56 47 45 43 38 34 34 35 30 10 5 6 7 9

GFSSE_500_rhum_060.txt.gz
RH
63 82 88 84 79 75 65 71 90 91 86 84 69 29 22 7 4 9 6 6 6 3 2 2 2 2 3 4 4 4 5 5 4 4 3 13 7 10 29 21 15 14 11
86 92 95 89 98 92 78 82 94 94 94 93 74 33 7 5 8 7 6 6 4 3 3 3 3 3 3 4 4 5 6 6 5 4 5 20 27 27 11 10 8 9 10
81 87 94 93 97 95 95 92 96 99 98 95 86 54 6 6 6 8 6 4 4 4 4 3 4 3 3 3 5 9 7 7 6 6 8 20 22 7 6 6 6 8 8
72 79 74 89 96 96 96 96 97 97 99 95 85 26 6 6 9 8 5 5 6 6 5 5 5 4 4 10 14 14 13 9 9 9 11 16 10 10 11 12 9 8 8
96 95 79 87 96 97 100 95 97 96 98 95 75 26 7 10 10 9 6 7 6 6 6 6 6 7 10 10 12 21 21 19 17 15 10 8 8 10 11 12 12 12 12
86 89 89 74 87 96 99 96 96 96 95 95 41 14 12 12 11 8 7 6 6 7 8 8 8 8 8 11 11 16 26 27 25 25 22 24 18 11 8 8 12 13 12
82 86 92 91 87 93 98 97 96 95 95 89 50 20 8 12 11 9 8 8 8 8 8 9 9 10 10 18 19 17 17 21 36 35 36 28 22 20 19 16 14 11 10
96 93 96 99 99 97 97 96 96 98 86 37 49 17 23 11 11 9 9 9 9 7 7 11 11 12 17 33 35 32 31 36 33 41 34 29 26 28 27 21 17 16 15
85 85 95 97 96 94 96 96 97 95 92 94 74 27 9 10 9 10 23 9 7 9 12 13 20 24 28 54 61 57 42 41 44 41 37 41 40 36 33 28 24 19 15
89 95 91 99 97 98 96 96 93 87 32 19 32 44 8 8 14 16 8 9 12 20 58 77 68 65 65 51 57 54 46 43 48 56 50 41 37 39 33 29 26 23 15
96 96 97 97 96 95 98 96 95 94 81 65 23 22 22 23 12 8 24 38 52 60 57 74 64 58 62 45 44 58 63 56 57 52 46 43 42 39 40 31 29 29 31
96 98 100 97 97 96 95 94 93 82 70 59 33 14 9 11 27 45 48 54 58 66 69 73 60 54 46 40 42 51 68 60 54 53 46 43 44 44 41 38 36 34 36
94 96 96 96 96 94 92 85 68 53 21 9 10 9 20 44 46 45 47 55 49 79 65 74 70 62 32 38 48 51 57 56 56 49 44 39 37 35 34 41 42 42 41
97 98 92 80 77 44 24 19 13 9 10 11 18 31 34 37 49 57 60 40 68 64 46 56 69 31 30 28 33 33 45 51 48 42 38 35 38 38 41 48 50 49 48
95 80 39 13 9 8 10 11 11 12 19 22 29 41 59 60 67 74 49 41 52 25 24 37 23 30 34 22 20 19 19 22 29 28 30 33 40 42 52 60 57 54 51
47 26 20 17 16 14 12 14 14 14 21 29 47 48 38 23 28 24 17 22 16 14 17 19 18 18 20 21 20 22 24 25 26 27 32 31 37 47 55 55 52 47 43
8 7 8 9 14 15 14 13 22 41 58 55 25 18 19 16 13 12 13 14 17 19 19 20 21 21 21 22 21 21 23 29 33 34 36 37 40 40 42 42 44 46 45
24 12 12 14 13 12 16 44 58 27 20 25 28 18 14 14 16 17 18 18 18 19 22 23 23 22 23 23 22 20 21 24 31 35 38 38 38 36 37 36 36 37 41
10 10 13 15 14 17 62 63 28 19 27 16 14 15 16 19 20 21 21 21 22 22 22 22 23 24 25 26 25 24 23 28 33 40 44 46 44 44 41 39 40 37 32
17 15 18 23 24 44 62 29 25 28 15 16 17 20 22 23 24 24 23 23 23 23 24 24 24 24 24 24 25 25 25 31 42 51 54 54 55 50 47 43 40 36 35
14 12 13 14 19 68 64 24 15 16 19 21 23 24 24 26 26 27 27 27 27 26 26 25 24 24 25 26 26 25 24 35 53 62 60 60 62 57 51 43 36 31 26
17 24 33 65 66 51 24 15 18 21 24 25 26 27 27 25 23 21 19 20 20 20 21 22 22 22 25 28 27 24 26 55 66 73 68 59 54 44 38 34 29 26 24
18 21 34 33 29 21 16 18 20 23 25 25 25 24 21 19 17 18 19 20 20 21 21 22 23 23 28 33 31 31 43 59 62 63 56 48 46 45 44 43 40 37 32
18 17 17 26 37 18 19 20 24 25 24 25 22 18 17 16 18 18 20 20 22 24 25 24 26 34 42 39 35 58 70 62 50 39 37 34 35 43 47 46 47 46 39
14 19 51 46 27 22 23 25 24 22 22 16 16 17 17 18 19 20 20 21 23 25 27 31 40 45 39 34 60 67 62 58 53 42 33 32 36 44 50 51 46 33 15
20 40 36 25 25 26 27 24 17 16 16 17 17 17 17 17 17 18 20 24 27 28 29 33 40 40 36 51 62 64 60 51 42 38 37 38 41 47 49 42 21 8 6

GFSSE_500_rhum_063.txt.gz
RH
59 56 61 62 84 98 96 93 94 80 71 86 90 84 77 54 18 7 7 7 5 5 3 2 2 2 2 2 3 4 5 5 4 3 12 18 26 21 15 9 24 10 10
91 93 87 78 81 79 94 96 95 89 93 92 97 88 79 60 6 9 9 6 6 4 3 2 2 2 2 2 3 6 7 6 6 5 7 7 26 15 5 4 4 4 5
76 80 82 77 72 79 84 97 97 96 94 93 97 91 89 29 8 11 8 8 5 4 4 3 3 3 3 3 6 13 15 11 8 7 5 6 11 8 8 7 8 7 6
81 79 72 80 80 86 82 91 96 97 95 98 99 94 86 18 9 10 10 7 5 6 5 5 4 4 4 4 8 17 21 22 17 13 13 8 8 8 7 7 8 9 11
90 93 67 78 89 87 84 98 97 98 97 97 98 94 71 12 12 12 11 8 7 7 7 7 7 6 6 6 7 13 16 18 22 23 21 21 17 20 15 9 9 10 10
73 66 73 74 87 89 86 81 97 99 97 96 97 87 35 11 23 13 12 9 8 9 8 8 7 7 8 8 6 8 8 10 19 24 26 27 31 27 22 20 19 17 16
63 61 81 89 97 90 95 98 96 97 97 97 96 85 23 59 21 28 11 10 10 10 9 8 9 8 10 8 6 15 38 40 37 35 27 22 25 31 21 19 24 24 20
77 77 76 91 96 97 91 95 97 97 96 97 93 68 79 31 34 18 13 10 10 9 9 12 20 50 52 50 42 27 39 47 45 41 41 38 32 29 28 29 29 29 29
71 86 91 94 97 96 99 98 98 97 96 96 64 93 42 29 14 12 9 10 9 9 16 39 53 60 62 50 55 45 35 33 33 35 38 44 45 40 36 32 30 36 34
82 86 91 93 98 96 97 97 96 96 96 95 95 78 51 14 10 10 20 27 11 40 53 51 56 72 64 55 50 46 42 40 35 41 45 45 44 47 43 43 44 39 41
84 94 94 95 94 99 97 97 97 97 92 86 56 42 37 30 26 38 14 34 45 49 52 56 63 66 60 53 47 32 32 39 39 43 44 47 40 42 47 45 44 43 41
93 96 96 97 96 95 97 97 96 96 95 94 72 46 40 32 18 22 40 43 44 57 46 60 67 60 55 61 62 23 16 24 28 26 18 13 19 16 32 37 36 35 33
97 96 96 96 96 97 96 96 92 91 85 66 52 57 25 12 39 44 45 49 50 44 38 50 31 37 39 58 50 23 22 17 15 14 16 15 15 17 18 22 27 37 41
98 96 98 98 95 95 93 93 89 84 66 26 11 19 39 37 37 49 54 64 63 27 50 27 13 14 13 15 16 18 18 18 18 20 20 20 19 18 16 16 21 32 45
99 96 97 89 81 60 32 15 13 11 11 20 29 28 44 51 55 30 31 34 18 14 13 13 15 16 17 18 19 18 18 18 18 20 20 20 22 24 23 22 26 33 45
99 97 71 18 13 12 12 11 13 17 20 33 26 42 52 31 23 18 17 13 13 14 16 17 20 21 21 20 19 19 18 17 17 18 20 21 22 23 27 28 27 30 35
74 80 36 21 39 19 11 11 12 12 26 50 37 28 28 16 12 12 14 17 19 20 20 21 21 21 20 21 21 21 20 19 19 20 21 22 23 26 29 33 33 32 33
44 15 18 21 16 14 12 15 38 63 24 20 28 18 13 14 16 20 22 22 21 20 21 21 22 22 22 22 20 20 21 21 21 22 22 22 25 30 35 37 36 34 32
32 51 36 19 14 14 35 70 66 29 28 26 14 15 17 21 23 23 22 22 22 24 23 22 23 22 21 21 20 22 23 25 27 28 26 24 26 39 48 47 43 40 38
15 15 15 17 15 25 58 65 39 28 17 15 17 20 22 24 24 23 21 20 19 18 18 18 19 19 20 21 22 24 27 32 34 33 28 28 40 55 55 53 51 46 41
13 11 11 15 19 41 72 55 18 15 17 19 22 24 25 22 20 18 17 17 17 17 18 19 20 20 21 23 25 28 29 35 37 34 34 50 66 70 66 59 50 42 36
11 11 16 32 71 51 40 23 17 18 21 21 23 23 20 18 17 17 17 17 18 18 19 19 20 22 23 26 28 29 32 42 40 40 56 74 81 77 69 60 50 39 33
16 20 24 33 38 33 27 30 33 20 21 21 20 16 16 16 17 17 17 18 18 18 18 19 22 26 28 30 29 35 39 40 39 57 77 84 81 72 58 47 42 39 34
21 25 24 29 34 52 31 59 50 29 19 17 15 16 17 17 17 17 17 18 16 19 22 26 29 28 28 31 38 47 47 46 56 60 70 68 62 57 54 50 54 62 65
48 43 28 71 77 45 42 39 24 21 16 16 17 18 17 16 16 17 18 23 23 25 29 31 28 30 33 44 51 46 54 74 81 78 68 64 60 55 56 61 68 72 72
50 53 62 81 43 35 33 20 17 16 17 17 17 17 17 16 16 18 18 20 19 23 32 31 35 39 53 52 41 52 74 80 78 75 69 65 53 48 72 82 85 84 64

GFSSE_500_rhum_069.txt.gz
RH
59 57 56 57 56 56 54 56 71 71 76 74 76 82 85 88 86 79 51 12 8 7 5 4 3 2 2 2 2 2 2 2 3 4 4 4 3 3 5 7 3 2 2
59 55 55 56 57 62 73 81 79 75 74 77 77 86 91 89 88 80 35 11 8 7 5 4 4 3 3 3 3 3 3 3 3 4 5 6 6 6 5 5 3 4 4
71 62 60 64 74 74 69 64 68 65 68 76 82 87 90 86 93 82 37 12 8 8 5 5 4 4 4 5 5 4 4 4 3 3 5 5 5 6 6 7 8 8 4
72 72 73 81 66 63 66 72 68 55 58 72 85 91 92 91 94 84 29 10 12 8 7 7 6 6 6 7 8 8 8 5 4 3 4 6 10 16 20 17 11 8 10
87 90 80 65 61 71 68 72 71 68 67 75 87 98 95 93 97 85 29 11 12 10 9 8 7 7 9 11 15 26 32 33 29 15 6 13 22 27 26 25 22 19 20
82 69 70 71 72 65 68 72 68 80 78 85 92 100 90 95 98 69 22 23 19 13 11 9 9 10 17 23 28 33 38 40 35 34 30 28 32 32 30 30 28 27 26
83 81 76 77 82 73 71 82 83 79 94 91 91 92 97 95 89 58 51 44 22 18 10 10 12 21 24 24 29 35 36 41 41 38 36 34 32 30 32 31 35 34 34
73 72 83 84 82 84 88 83 90 82 96 96 96 96 96 96 85 37 40 30 35 12 12 16 19 18 27 32 33 34 40 46 48 45 40 38 36 32 32 30 35 34 32
60 60 80 94 98 95 83 76 88 87 78 99 96 100 98 96 76 49 72 50 20 32 16 31 23 31 33 40 38 40 52 49 50 47 42 32 10 9 10 12 13 14 12
53 82 82 90 97 96 99 80 89 92 94 97 96 97 94 82 84 88 70 37 42 15 29 35 30 38 43 35 34 21 15 15 13 24 33 10 9 10 10 10 10 11 10
62 84 93 93 92 97 89 91 96 96 97 96 95 96 90 93 92 30 42 43 27 36 37 27 41 47 40 17 16 8 8 9 9 10 10 11 11 12 12 12 11 11 12
59 57 62 78 95 94 96 97 96 97 97 96 96 94 94 86 56 61 45 30 28 23 43 49 42 34 11 9 10 10 11 12 12 13 12 12 12 12 13 13 14 14 14
78 77 72 69 66 75 77 91 94 97 96 98 94 93 86 76 60 38 23 22 47 58 48 30 12 10 11 12 12 12 13 13 14 13 13 13 12 11 13 14 14 15 15
80 83 82 80 93 97 97 97 96 96 96 96 90 82 82 62 38 24 35 52 55 45 15 12 12 13 13 13 13 14 14 15 16 15 15 15 14 13 10 12 13 14 15
96 85 93 96 96 97 95 97 95 89 92 80 69 57 45 36 28 37 50 46 23 13 13 15 16 15 14 14 15 15 15 15 15 14 14 14 13 13 11 10 12 15 16
92 97 96 95 96 97 96 95 93 87 69 58 60 49 35 34 43 56 34 14 14 15 17 17 16 16 16 15 15 16 16 15 15 14 14 13 14 14 14 14 12 13 16
93 90 88 94 100 98 94 91 82 87 46 27 29 41 62 72 64 23 14 16 17 18 18 18 18 16 16 16 15 15 14 14 13 13 14 14 15 16 16 17 17 21 28
94 93 86 52 26 37 31 22 20 22 30 64 57 50 48 45 15 15 17 20 20 20 20 16 16 16 15 14 13 12 11 12 12 12 14 15 16 17 17 19 24 30 33
62 47 40 47 34 28 27 30 31 37 47 56 63 71 19 14 16 20 22 25 24 17 16 16 15 14 13 11 11 10 12 13 13 14 13 16 19 21 27 32 34 31 28
82 73 83 81 76 55 25 41 37 25 44 52 58 36 20 19 22 25 26 21 16 16 16 15 14 12 10 10 9 10 12 15 16 16 20 25 31 36 35 30 29 31 38
70 63 61 56 43 22 12 14 22 43 52 60 65 28 21 23 25 24 17 16 16 15 14 13 10 9 11 12 12 12 12 12 16 25 34 38 38 34 32 37 47 52 52
23 28 25 19 16 23 14 42 61 46 33 48 29 22 23 24 18 16 17 16 14 12 11 10 10 13 16 20 31 27 27 22 32 39 39 36 34 39 49 59 60 59 59
16 17 17 17 20 40 58 45 40 23 48 46 25 23 22 18 17 17 15 13 12 11 11 12 15 17 27 34 55 80 51 32 37 38 34 38 48 60 64 63 65 63 62
12 13 15 21 24 29 38 41 40 55 77 90 58 20 17 19 17 14 13 12 12 14 15 13 21 20 30 44 62 56 44 41 38 33 39 61 60 64 63 66 76 77 77
29 21 24 25 25 28 64 79 67 73 98 96 80 19 26 31 18 14 14 15 22 21 12 16 36 31 51 48 34 36 44 38 37 49 58 61 56 61 63 72 83 73 62
56 56 47 62 36 58 93 86 91 73 97 96 38 20 38 35 18 17 23 29 20 18 15 21 35 47 58 39 40 44 38 40 60 65 58 58 55 69 74 61 53 42 36

GFSSE_500_rhum_075.txt.gz
RH
79 74 60 62 59 54 54 54 48 45 46 46 49 56 55 56 63 71 78 69 57 36 21 10 7 5 4 3 2 2 2 2 2 2 3 3 2 3 3 3 3 4 4
84 67 59 56 55 55 51 51 49 46 46 46 57 63 62 60 73 72 76 74 59 40 18 9 6 5 4 3 3 3 5 6 8 8 8 7 5 4 3 3 5 10 14
67 61 59 59 57 57 55 53 49 49 46 48 59 57 63 70 80 74 78 78 63 37 19 8 6 6 4 4 6 12 19 21 22 20 20 20 17 13 6 7 12 17 18
63 60 62 61 64 62 59 54 52 48 51 54 58 56 58 64 71 89 83 77 67 38 17 10 8 6 6 6 15 24 23 22 25 27 28 28 30 26 21 16 17 21 24
61 56 58 59 55 65 66 61 55 61 57 49 56 63 71 69 82 96 91 82 65 43 18 10 8 8 8 14 24 22 25 30 30 28 29 32 34 30 30 30 28 26 23
64 61 60 57 60 76 68 65 60 63 49 47 68 86 87 83 85 92 94 80 56 43 16 13 10 10 10 19 21 24 29 26 32 32 31 31 35 38 36 33 29 18 12
67 56 66 68 62 67 73 68 68 53 50 49 82 88 92 96 97 98 97 79 52 32 20 15 14 10 17 24 24 31 33 35 34 24 20 17 26 38 38 32 21 17 9
87 79 82 87 78 81 73 67 55 53 53 54 80 88 97 96 95 97 95 74 61 26 28 21 13 22 38 27 34 40 38 22 16 11 9 9 10 12 9 10 9 9 9
84 95 84 88 88 80 72 65 65 64 68 60 77 85 98 96 95 96 97 91 62 37 37 33 27 34 31 32 35 43 30 10 9 9 10 10 10 10 10 10 10 10 9
89 98 93 94 86 90 83 80 79 76 91 96 81 85 96 96 95 98 69 77 60 58 46 40 33 23 33 33 41 21 9 10 10 10 10 10 10 11 10 10 9 8 6
91 98 98 96 92 91 89 80 62 79 99 95 96 96 97 95 94 93 92 94 95 39 52 46 25 34 36 46 15 9 10 11 11 11 11 11 11 11 10 9 8 7 6
84 75 82 79 96 96 99 97 95 95 96 96 95 96 96 95 94 96 95 94 79 64 46 27 35 39 42 12 10 11 12 12 12 12 12 12 13 12 11 9 8 7 6
74 77 75 75 81 95 96 89 95 95 93 94 95 96 96 97 96 94 95 80 70 44 28 29 47 40 14 11 12 12 13 14 13 12 13 13 12 10 8 6 6 6 5
75 74 79 76 72 88 88 76 74 64 81 94 95 98 96 95 96 97 86 62 46 29 30 50 26 13 13 14 15 15 14 13 11 11 12 11 9 7 6 5 5 5 4
53 63 70 75 71 71 94 90 97 96 94 98 96 95 96 96 96 95 65 40 29 32 48 34 12 14 17 17 16 14 13 12 11 10 10 8 6 5 6 5 5 6 8
64 64 60 70 97 71 96 96 94 94 96 97 96 98 97 96 96 96 37 32 31 45 26 13 18 19 18 17 15 14 14 13 11 8 5 5 5 7 6 5 11 15 18
51 61 70 64 68 93 97 94 97 96 97 97 97 96 96 97 65 47 52 44 56 20 16 21 21 20 17 15 15 15 14 11 8 6 6 7 8 8 6 14 14 15 17
51 59 70 95 97 97 97 95 96 97 99 98 94 90 69 64 72 69 75 88 18 18 21 23 22 18 16 16 16 13 11 8 6 7 10 8 7 7 12 20 20 20 21
69 90 97 96 96 96 99 98 97 95 94 93 93 95 60 50 72 92 84 22 19 22 25 25 19 16 17 16 13 10 9 6 8 9 8 7 13 18 23 16 23 21 22
100 92 90 99 95 95 94 85 81 81 89 85 72 87 81 79 93 58 19 21 24 26 25 18 17 17 15 12 10 9 8 7 8 9 9 14 19 23 25 28 25 23 25
63 63 77 99 97 88 48 34 34 42 57 55 70 78 87 96 81 20 22 24 25 23 17 17 16 14 12 10 10 8 6 7 12 15 19 22 28 28 24 27 27 28 35
75 69 65 71 74 62 40 36 47 50 54 62 61 65 74 96 66 28 23 25 23 17 17 15 14 13 11 11 8 7 8 7 6 7 12 25 22 31 31 27 29 36 43
37 43 45 46 68 66 51 38 33 32 51 51 56 66 85 97 33 24 26 24 18 17 20 16 13 11 14 15 20 13 16 12 10 28 24 18 28 32 29 32 42 42 39
14 15 15 16 21 27 38 49 40 37 51 55 58 42 82 93 67 34 25 18 18 25 27 18 17 22 22 16 10 16 21 27 34 40 41 40 36 26 31 44 50 44 35
14 14 14 15 16 18 26 35 31 43 41 64 38 46 82 96 97 79 46 24 29 25 26 24 40 48 28 34 32 36 36 29 39 57 38 45 37 33 48 48 42 37 30
27 25 24 51 64 46 44 39 30 22 33 50 59 72 81 87 94 99 87 71 40 39 36 44 56 50 44 38 63 88 80 82 78 42 44 40 33 52 59 55 42 33 23